KE5WTH-14 Weather Reports


time (UTC)temp
C
wind
direction
speed
KPH
gust
KPH
rain 1hr
cm
rain 24hr
cm
rain mn
cm
humidity
%
barometer
mb
20260506005518 22 25 6.4 16.1 0.00 0.00 0.00 73 1005.7
20260506005418 22 13 6.4 16.1 0.00 0.00 0.00 73 1005.8
20260506005315 22 10 9.7 16.1 0.00 0.00 0.00 72 1006.0
20260506005213 22 358 11.3 16.1 0.00 0.00 0.00 73 1006.0
20260506005154 22 0 11.3 16.1 0.00 0.00 0.00 73 1006.0
20260506005112 22 0 9.7 16.1 0.00 0.00 0.00 72 1005.9
20260506005010 22 350 8.0 11.3 0.00 0.00 0.00 72 1006.1
20260506004908 22 345 6.4 11.3 0.00 0.00 0.00 72 1006.0
20260506004805 22 351 4.8 11.3 0.00 0.00 0.00 72 1006.2
20260506004705 22 334 6.4 14.5 0.00 0.00 0.00 72 1006.2
20260506004651 22 6 6.4 14.5 0.00 0.00 0.00 72 1006.2
20260506004606 22 303 6.4 14.5 0.00 0.00 0.00 72 1006.2
20260506004506 22 0 8.0 14.5 0.00 0.00 0.00 72 1006.2
20260506004404 22 0 6.4 14.5 0.00 0.00 0.00 72 1006.1
20260506004304 22 0 3.2 14.5 0.00 0.00 0.00 72 1006.0
20260506004204 22 3 3.2 14.5 0.00 0.00 0.00 72 1005.9
20260506004151 22 350 3.2 14.5 0.00 0.00 0.00 72 1005.9
20260506004105 22 11 4.8 14.5 0.00 0.00 0.00 72 1005.8
20260506004054 22 13 8.0 11.3 0.00 0.00 0.00 72 1005.9
20260506004032 22 10 6.4 14.5 0.00 0.00 0.00 72 1005.7
20260506004001 22 16 9.7 14.5 0.00 0.00 0.00 72 1005.8
20260506003936 22 1 9.7 14.5 0.00 0.00 0.00 72 1005.8
20260506003907 22 21 8.0 11.3 0.00 0.00 0.00 72 1005.9
20260506003604 22 27 6.4 11.3 0.00 0.00 0.00 72 1005.9
20260506003504 22 0 6.4 9.7 0.00 0.00 0.00 72 1005.9
20260506003402 22 17 4.8 9.7 0.00 0.00 0.00 71 1006.0
20260506003301 22 353 4.8 11.3 0.00 0.00 0.00 71 1006.0
20260506003151 22 351 6.4 11.3 0.00 0.00 0.00 71 1006.0
20260506003054 22 10 6.4 11.3 0.00 0.00 0.00 71 1006.0
20260506002954 22 0 4.8 11.3 0.00 0.00 0.00 71 1005.9
20260506002853 22 0 4.8 11.3 0.00 0.00 0.00 71 1005.9
20260506002755 22 0 6.4 16.1 0.00 0.00 0.00 71 1005.9
20260506002654 22 13 6.4 17.7 0.00 0.00 0.00 71 1005.9
20260506002602 22 345 8.0 22.5 0.00 0.00 0.00 70 1005.7
20260506002555 22 0 6.4 17.7 0.00 0.00 0.00 71 1005.9
20260506002521 22 0 6.4 19.3 0.00 0.00 0.00 70 1005.7
20260506002451 22 0 4.8 22.5 0.00 0.00 0.00 70 1005.7
20260506002423 22 321 6.4 22.5 0.00 0.00 0.00 70 1005.7
20260506002144 22 350 8.0 22.5 0.00 0.00 0.00 70 1005.7
20260506002040 22 357 8.0 22.5 0.00 0.00 0.00 70 1005.7
20260506001940 22 355 9.7 22.5 0.00 0.00 0.00 70 1005.8
20260506001839 22 0 11.3 22.5 0.00 0.00 0.00 70 1005.7
20260506001739 22 0 11.3 22.5 0.00 0.00 0.00 70 1005.7
20260506001653 22 326 11.3 22.5 0.00 0.00 0.00 70 1005.7
20260506001635 22 0 12.9 22.5 0.00 0.00 0.00 69 1005.7
20260506001604 22 0 8.0 22.5 0.00 0.00 0.00 69 1005.4
20260506001545 22 351 14.5 22.5 0.00 0.00 0.00 69 1005.6
20260506001516 22 355 11.3 22.5 0.00 0.00 0.00 69 1005.6
20260506001447 22 24 8.0 22.5 0.00 0.00 0.00 69 1005.5
20260506001416 22 323 8.0 22.5 0.00 0.00 0.00 69 1005.4
20260506001128 22 324 9.7 22.5 0.00 0.00 0.00 69 1005.4
20260506001026 22 347 12.9 22.5 0.00 0.00 0.00 69 1005.3
20260506000926 22 355 14.5 22.5 0.00 0.00 0.00 69 1005.4
20260506000823 23 321 14.5 22.5 0.00 0.00 0.00 69 1005.4
20260506000723 23 343 12.9 22.5 0.00 0.00 0.00 70 1005.5
20260506000652 23 350 11.3 22.5 0.00 0.00 0.00 70 1005.5
20260506000621 23 6 12.9 22.5 0.00 0.00 0.00 70 1005.5
20260506000506 23 21 12.9 22.5 0.00 0.00 0.00 70 1005.5
20260506000405 23 350 9.7 22.5 0.00 0.00 0.00 70 1005.6
20260506000303 23 341 8.0 24.1 0.00 0.00 0.00 70 1005.6
20260506000206 23 307 9.7 24.1 0.00 0.00 0.00 70 1005.5
20260506000133 23 303 9.7 24.1 0.00 0.00 0.00 70 1005.4
20260506000105 23 324 9.7 24.1 0.00 0.00 0.00 70 1005.4
20260506000004 23 337 11.3 24.1 0.00 0.00 0.00 70 1005.4
20260505235901 23 355 14.5 24.1 0.00 0.00 0.00 70 1005.4
20260505235803 23 0 11.3 24.1 0.00 0.00 0.00 70 1005.4
20260505235702 23 0 11.3 24.1 0.00 0.00 0.00 69 1005.5
20260505235634 23 286 12.9 24.1 0.00 0.00 0.00 69 1005.5
20260505235604 23 353 14.5 24.1 0.00 0.00 0.00 69 1005.5
20260505235503 23 293 16.1 24.1 0.00 0.00 0.00 69 1005.6
20260505235403 23 6 14.5 24.1 0.00 0.00 0.00 69 1005.6
20260505235304 23 306 12.9 20.9 0.00 0.00 0.00 70 1005.5
20260505235203 23 329 12.9 20.9 0.00 0.00 0.00 70 1005.4
20260505235133 23 14 12.9 20.9 0.00 0.00 0.00 70 1005.3
20260505235104 23 324 11.3 20.9 0.00 0.00 0.00 70 1005.3
20260505235002 23 293 11.3 20.9 0.00 0.00 0.00 70 1005.3
20260505234903 23 357 12.9 20.9 0.00 0.00 0.00 70 1005.3
20260505234803 23 337 9.7 20.9 0.00 0.00 0.00 70 1005.4
20260505234704 23 350 8.0 17.7 0.00 0.00 0.00 69 1005.4
20260505234631 23 337 8.0 17.7 0.00 0.00 0.00 70 1005.5
20260505234602 24 353 8.0 14.5 0.00 0.00 0.00 70 1005.5
20260505234502 24 283 8.0 14.5 0.00 0.00 0.00 69 1005.5
20260505234403 24 324 6.4 16.1 0.00 0.00 0.00 69 1005.4
20260505234302 24 278 6.4 25.7 0.00 0.00 0.00 69 1005.3
20260505234202 24 313 8.0 25.7 0.00 0.00 0.00 67 1005.2
20260505234132 24 0 9.7 25.7 0.00 0.00 0.00 67 1005.1
20260505234103 25 275 12.9 25.7 0.00 0.00 0.00 67 1005.1
20260505234004 25 275 12.9 25.7 0.00 0.00 0.00 67 1005.1
20260505233845 25 275 12.9 25.7 0.00 0.00 0.00 67 1005.1
20260505233746 25 275 12.9 25.7 0.00 0.00 0.00 67 1005.1
20260505233644 25 275 12.9 25.7 0.00 0.00 0.00 67 1005.1
20260505233632 25 275 12.9 25.7 0.00 0.00 0.00 67 1005.2
20260505233547 25 275 12.9 25.7 0.00 0.00 0.00 67 1005.2
20260505233514 25 0 11.3 22.5 0.00 0.00 0.00 67 1004.9
20260505233502 25 358 12.9 25.7 0.00 0.00 0.00 67 1005.2
20260505233433 25 351 11.3 25.7 0.00 0.00 0.00 67 1005.0
20260505233402 25 276 12.9 22.5 0.00 0.00 0.00 67 1005.0
20260505233333 25 317 12.9 22.5 0.00 0.00 0.00 67 1004.9
20260505233034 25 298 9.7 24.1 0.00 0.00 0.00 67 1004.9
20260505232933 25 13 11.3 24.1 0.00 0.00 0.00 67 1004.9
20260505232835 25 0 11.3 24.1 0.00 0.00 0.00 66 1004.9
20260505232733 25 337 9.7 24.1 0.00 0.00 0.00 66 1005.1
20260505232633 25 333 11.3 24.1 0.00 0.00 0.00 66 1005.1
20260505232613 25 0 11.3 24.1 0.00 0.00 0.00 66 1005.1
20260505232534 25 338 9.7 24.1 0.00 0.00 0.00 66 1005.1
20260505232433 25 354 11.3 24.1 0.00 0.00 0.00 66 1005.0
20260505232333 25 1 14.5 24.1 0.00 0.00 0.00 65 1005.1
20260505232206 25 1 14.5 24.1 0.00 0.00 0.00 65 1005.0
20260505232107 26 309 14.5 24.1 0.00 0.00 0.00 66 1005.0
20260505232024 26 1 14.5 24.1 0.00 0.00 0.00 65 1005.2
20260505232014 26 1 11.3 24.1 0.00 0.00 0.00 65 1005.2
20260505231943 26 257 12.9 24.1 0.00 0.00 0.00 65 1005.2
20260505231912 26 28 12.9 24.1 0.00 0.00 0.00 65 1005.2
20260505231842 26 0 12.9 24.1 0.00 0.00 0.00 65 1005.1
20260505231814 26 1 14.5 24.1 0.00 0.00 0.00 65 1005.2
20260505231507 26 333 14.5 22.5 0.00 0.00 0.00 64 1005.1
20260505231404 26 306 12.9 20.9 0.00 0.00 0.00 64 1005.1
20260505231302 26 30 11.3 20.9 0.00 0.00 0.00 64 1005.1
20260505231202 26 354 11.3 20.9 0.00 0.00 0.00 64 1005.0
20260505231106 26 1 9.7 19.3 0.00 0.00 0.00 63 1005.0
20260505231101 26 354 9.7 19.3 0.00 0.00 0.00 63 1005.0
20260505230959 26 6 8.0 19.3 0.00 0.00 0.00 63 1004.9
20260505230858 26 336 6.4 19.3 0.00 0.00 0.00 63 1004.9
20260505230757 26 320 6.4 19.3 0.00 0.00 0.00 63 1004.8
20260505230655 26 334 6.4 19.3 0.00 0.00 0.00 62 1004.9
20260505230603 26 313 8.0 19.3 0.00 0.00 0.00 62 1004.8
20260505230553 26 358 8.0 19.3 0.00 0.00 0.00 62 1004.8
20260505230455 27 355 9.7 19.3 0.00 0.00 0.00 62 1004.8
20260505230349 27 303 8.0 19.3 0.00 0.00 0.00 62 1004.9
20260505230248 27 220 8.0 19.3 0.00 0.00 0.00 62 1004.8
20260505230147 27 0 8.0 24.1 0.00 0.00 0.00 62 1004.9
20260505230123 27 0 11.3 24.1 0.00 0.00 0.00 61 1004.6
20260505230109 27 307 9.7 24.1 0.00 0.00 0.00 62 1004.8
20260505230059 27 288 9.7 24.1 0.00 0.00 0.00 62 1004.8
20260505230027 27 353 9.7 24.1 0.00 0.00 0.00 62 1004.8
20260505225957 27 298 8.0 24.1 0.00 0.00 0.00 62 1004.8
20260505225929 27 357 8.0 24.1 0.00 0.00 0.00 62 1004.7
20260505225859 27 3 9.7 24.1 0.00 0.00 0.00 61 1004.6
20260505225541 27 0 11.3 24.1 0.00 0.00 0.00 61 1004.6
20260505225438 27 6 11.3 24.1 0.00 0.00 0.00 61 1004.5
20260505225335 27 0 11.3 24.1 0.00 0.00 0.00 60 1004.4
20260505225234 27 0 9.7 24.1 0.00 0.00 0.00 60 1004.5
20260505225135 28 0 8.0 19.3 0.00 0.00 0.00 60 1004.5
20260505225103 28 348 8.0 19.3 0.00 0.00 0.00 59 1004.5
20260505225035 28 333 9.7 19.3 0.00 0.00 0.00 59 1004.4
20260505224933 28 3 8.0 19.3 0.00 0.00 0.00 59 1004.5
20260505224858 28 0 3.2 17.7 0.00 0.00 0.00 56 1004.6
20260505224844 28 37 6.4 14.5 0.00 0.00 0.00 59 1004.5
20260505224815 28 250 4.8 14.5 0.00 0.00 0.00 58 1004.6
20260505224746 28 278 4.8 14.5 0.00 0.00 0.00 58 1004.6
20260505224729 28 324 4.8 17.7 0.00 0.00 0.00 58 1004.6
20260505224715 28 358 4.8 17.7 0.00 0.00 0.00 58 1004.6
20260505224436 28 321 6.4 17.7 0.00 0.00 0.00 57 1004.6
20260505224416 28 321 6.4 17.7 0.00 0.00 0.00 57 1004.6
20260505224348 28 354 4.8 17.7 0.00 0.00 0.00 57 1004.5
20260505224319 28 306 3.2 17.7 0.00 0.00 0.00 57 1004.6
20260505224021 28 300 4.8 17.7 0.00 0.00 0.00 56 1004.6
20260505224012 28 0 3.2 19.3 0.00 0.00 0.00 54 1004.4
20260505223948 28 0 6.4 17.7 0.00 0.00 0.00 55 1004.6
20260505223919 28 350 8.0 17.7 0.00 0.00 0.00 55 1004.6
20260505223848 28 350 6.4 17.7 0.00 0.00 0.00 55 1004.5
20260505223816 28 324 3.2 19.3 0.00 0.00 0.00 54 1004.4
20260505223508 28 278 6.4 19.3 0.00 0.00 0.00 53 1004.3
20260505223406 28 319 8.0 19.3 0.00 0.00 0.00 53 1004.3
20260505223305 28 317 6.4 19.3 0.00 0.00 0.00 52 1004.3
20260505223204 29 8 6.4 19.3 0.00 0.00 0.00 52 1004.3
20260505223105 29 305 6.4 19.3 0.00 0.00 0.00 52 1004.3
20260505223002 29 264 4.8 19.3 0.00 0.00 0.00 52 1004.2
20260505222902 29 0 6.4 19.3 0.00 0.00 0.00 51 1004.2
20260505222758 29 289 6.4 19.3 0.00 0.00 0.00 50 1004.2
20260505222657 29 338 6.4 14.5 0.00 0.00 0.00 51 1004.2
20260505222604 29 317 4.8 14.5 0.00 0.00 0.00 51 1004.2
20260505222554 29 307 4.8 14.5 0.00 0.00 0.00 51 1004.2
20260505222453 29 314 6.4 14.5 0.00 0.00 0.00 50 1004.2
20260505222353 29 321 8.0 14.5 0.00 0.00 0.00 50 1004.2
20260505222251 29 357 8.0 14.5 0.00 0.00 0.00 50 1004.1
20260505222150 29 1 6.4 14.5 0.00 0.00 0.00 50 1004.2
20260505222104 29 319 6.4 14.5 0.00 0.00 0.00 50 1004.1
20260505222047 29 288 6.4 14.5 0.00 0.00 0.00 50 1004.1
20260505221944 30 317 8.0 16.1 0.00 0.00 0.00 50 1004.2
20260505221844 30 285 6.4 16.1 0.00 0.00 0.00 50 1004.2
20260505221745 30 306 6.4 16.1 0.00 0.00 0.00 50 1004.1
20260505221644 30 326 8.0 16.1 0.00 0.00 0.00 50 1004.2
20260505221604 30 13 6.4 16.1 0.00 0.00 0.00 50 1004.1
20260505221544 30 305 6.4 16.1 0.00 0.00 0.00 50 1004.1
20260505221444 29 338 6.4 16.1 0.00 0.00 0.00 49 1004.0
20260505221338 29 276 6.4 17.7 0.00 0.00 0.00 50 1004.0
20260505221233 29 0 6.4 17.7 0.00 0.00 0.00 50 1004.0
20260505221134 29 4 8.0 17.7 0.00 0.00 0.00 49 1003.8
20260505221104 29 331 6.4 17.7 0.00 0.00 0.00 48 1003.8
20260505221034 29 357 8.0 17.7 0.00 0.00 0.00 48 1004.0
20260505220933 29 293 4.8 17.7 0.00 0.00 0.00 50 1004.0
20260505220834 29 259 6.4 17.7 0.00 0.00 0.00 51 1004.0
20260505220734 29 0 8.0 17.7 0.00 0.00 0.00 51 1004.0
20260505220633 29 307 8.0 22.5 0.00 0.00 0.00 49 1004.0
20260505220601 29 307 9.7 22.5 0.00 0.00 0.00 49 1004.0
20260505220533 29 1 8.0 22.5 0.00 0.00 0.00 49 1003.8
20260505220433 29 353 9.7 22.5 0.00 0.00 0.00 50 1003.8
20260505220333 29 302 9.7 22.5 0.00 0.00 0.00 50 1004.0
20260505220233 29 313 8.0 22.5 0.00 0.00 0.00 51 1004.0
20260505220134 29 319 6.4 22.5 0.00 0.00 0.00 50 1004.0
20260505220033 28 0 8.0 22.5 0.00 0.00 0.00 50 1004.0
20260505215929 29 329 8.0 22.5 0.00 0.00 0.00 49 1004.0
20260505215828 29 324 8.0 22.5 0.00 0.00 0.00 49 1004.0
20260505215721 29 0 6.4 20.9 0.00 0.00 0.00 50 1004.0
20260505215620 29 319 6.4 16.1 0.00 0.00 0.00 50 1003.8
20260505215601 29 1 6.4 16.1 0.00 0.00 0.00 50 1003.8
20260505215519 29 8 6.4 16.1 0.00 0.00 0.00 50 1004.0
20260505215417 29 333 6.4 16.1 0.00 0.00 0.00 50 1004.0
20260505215317 29 307 6.4 16.1 0.00 0.00 0.00 50 1004.0
20260505215214 29 272 8.0 17.7 0.00 0.00 0.00 49 1004.1
20260505215112 30 75 8.0 17.7 0.00 0.00 0.00 49 1004.1
20260505215100 30 295 8.0 17.7 0.00 0.00 0.00 49 1004.1
20260505215010 30 319 9.7 17.7 0.00 0.00 0.00 49 1004.1
20260505214911 30 278 8.0 17.7 0.00 0.00 0.00 50 1004.1
20260505214809 30 3 6.4 17.7 0.00 0.00 0.00 50 1004.0
20260505214708 30 348 6.4 17.7 0.00 0.00 0.00 50 1004.1
20260505214607 30 316 9.7 17.7 0.00 0.00 0.00 52 1004.0
20260505214602 30 354 9.7 17.7 0.00 0.00 0.00 52 1004.0
20260505214505 31 324 9.7 17.7 0.00 0.00 0.00 55 1004.1
20260505214404 31 248 8.0 17.7 0.00 0.00 0.00 55 1004.0
20260505214305 31 183 8.0 17.7 0.00 0.00 0.00 55 1004.0
20260505214202 31 238 9.7 22.5 0.00 0.00 0.00 54 1004.0
20260505214106 31 221 9.7 22.5 0.00 0.00 0.00 53 1004.0
20260505214100 31 231 9.7 22.5 0.00 0.00 0.00 53 1004.0
20260505214004 31 241 9.7 22.5 0.00 0.00 0.00 53 1004.0
20260505213904 31 298 8.0 22.5 0.00 0.00 0.00 54 1004.1
20260505213802 31 266 8.0 22.5 0.00 0.00 0.00 56 1004.0
20260505213703 31 230 9.7 22.5 0.00 0.00 0.00 55 1004.0
20260505213604 31 276 9.7 22.5 0.00 0.00 0.00 53 1003.8
20260505213600 31 278 11.3 22.5 0.00 0.00 0.00 53 1003.8
20260505213503 31 217 11.3 22.5 0.00 0.00 0.00 52 1004.0
20260505213402 31 290 12.9 22.5 0.00 0.00 0.00 53 1004.0
20260505213304 31 220 11.3 22.5 0.00 0.00 0.00 53 1003.8
20260505213150 31 254 8.0 16.1 0.00 0.00 0.00 55 1004.0
20260505213058 31 243 8.0 16.1 0.00 0.00 0.00 55 1004.0
20260505213047 31 259 9.7 16.1 0.00 0.00 0.00 55 1004.0
20260505213011 31 261 8.0 20.9 0.00 0.00 0.00 55 1004.0
20260505212957 31 243 9.7 16.1 0.00 0.00 0.00 55 1003.8
20260505212926 31 293 8.0 16.1 0.00 0.00 0.00 55 1003.8
20260505212854 31 255 9.7 16.1 0.00 0.00 0.00 55 1003.8
20260505212824 31 235 9.7 17.7 0.00 0.00 0.00 55 1004.0
20260505212541 31 250 8.0 20.9 0.00 0.00 0.00 55 1004.0
20260505212442 31 231 8.0 20.9 0.00 0.00 0.00 56 1004.0
20260505212343 31 251 6.4 20.9 0.00 0.00 0.00 56 1004.0
20260505212241 31 199 6.4 20.9 0.00 0.00 0.00 57 1004.0
20260505212141 31 271 6.4 20.9 0.00 0.00 0.00 59 1004.1
20260505212058 31 259 6.4 20.9 0.00 0.00 0.00 58 1004.0
20260505212040 31 223 6.4 20.9 0.00 0.00 0.00 59 1004.0
20260505211941 31 223 8.0 20.9 0.00 0.00 0.00 56 1004.0
20260505211842 31 278 11.3 20.9 0.00 0.00 0.00 55 1004.0
20260505211741 31 252 12.9 20.9 0.00 0.00 0.00 56 1004.1
20260505211641 31 204 11.3 20.9 0.00 0.00 0.00 57 1004.2
20260505211600 31 209 9.7 20.9 0.00 0.00 0.00 56 1004.1
20260505211542 31 197 9.7 20.9 0.00 0.00 0.00 57 1004.1
20260505211440 31 195 9.7 20.9 0.00 0.00 0.00 58 1004.2
20260505211338 31 213 9.7 20.9 0.00 0.00 0.00 57 1004.2
20260505211236 31 210 9.7 20.9 0.00 0.00 0.00 57 1004.2
20260505211135 31 197 8.0 20.9 0.00 0.00 0.00 59 1004.1
20260505211055 31 213 9.7 20.9 0.00 0.00 0.00 60 1004.1
20260505211035 31 209 9.7 20.9 0.00 0.00 0.00 60 1004.2
20260505210935 31 255 11.3 20.9 0.00 0.00 0.00 58 1004.3
20260505210833 31 214 9.7 19.3 0.00 0.00 0.00 60 1004.3
20260505210732 31 247 11.3 19.3 0.00 0.00 0.00 58 1004.3
20260505210634 31 248 11.3 19.3 0.00 0.00 0.00 57 1004.3
20260505210553 31 231 9.7 20.9 0.00 0.00 0.00 58 1004.3
20260505210532 31 247 9.7 20.9 0.00 0.00 0.00 58 1004.3
20260505210432 31 237 9.7 20.9 0.00 0.00 0.00 60 1004.2
20260505210334 31 298 9.7 20.9 0.00 0.00 0.00 58 1004.3
20260505210234 31 234 8.0 20.9 0.00 0.00 0.00 58 1004.2
20260505210133 31 264 9.7 20.9 0.00 0.00 0.00 56 1004.3
20260505210053 31 216 9.7 20.9 0.00 0.00 0.00 58 1004.3
20260505210033 31 254 11.3 20.9 0.00 0.00 0.00 58 1004.4
20260505205934 31 257 11.3 25.7 0.00 0.00 0.00 57 1004.4
20260505205834 31 237 8.0 25.7 0.00 0.00 0.00 60 1004.4
20260505205734 31 259 9.7 25.7 0.00 0.00 0.00 59 1004.4
20260505205633 30 226 11.3 25.7 0.00 0.00 0.00 59 1004.5
20260505205554 30 251 9.7 25.7 0.00 0.00 0.00 59 1004.5
20260505205532 30 252 9.7 25.7 0.00 0.00 0.00 59 1004.4
20260505205432 30 231 12.9 25.7 0.00 0.00 0.00 60 1004.3
20260505205332 30 248 14.5 25.7 0.00 0.00 0.00 58 1004.4
20260505205234 30 213 14.5 25.7 0.00 0.00 0.00 58 1004.3
20260505205130 30 247 16.1 25.7 0.00 0.00 0.00 57 1004.3
20260505205050 30 235 14.5 25.7 0.00 0.00 0.00 59 1004.3
20260505205029 30 223 16.1 25.7 0.00 0.00 0.00 59 1004.3
20260505204926 31 254 14.5 19.3 0.00 0.00 0.00 58 1004.3
20260505204826 31 230 11.3 19.3 0.00 0.00 0.00 59 1004.4
20260505204721 31 233 8.0 19.3 0.00 0.00 0.00 60 1004.4
20260505204619 30 221 9.7 19.3 0.00 0.00 0.00 60 1004.5
20260505204548 30 209 9.7 19.3 0.00 0.00 0.00 60 1004.5
20260505204519 30 206 8.0 19.3 0.00 0.00 0.00 61 1004.5
20260505204449 30 190 9.7 17.7 0.00 0.00 0.00 60 1004.6
20260505204432 30 254 9.7 19.3 0.00 0.00 0.00 61 1004.5
20260505204405 30 254 9.7 19.3 0.00 0.00 0.00 60 1004.5
20260505204336 30 244 8.0 17.7 0.00 0.00 0.00 59 1004.5
20260505204306 30 276 9.7 17.7 0.00 0.00 0.00 60 1004.6
20260505204012 30 257 9.7 17.7 0.00 0.00 0.00 60 1004.6
20260505204006 30 240 8.0 17.7 0.00 0.00 0.00 60 1004.4
20260505203932 30 204 9.7 17.7 0.00 0.00 0.00 61 1004.6
20260505203902 30 230 9.7 17.7 0.00 0.00 0.00 61 1004.6
20260505203832 30 248 9.7 17.7 0.00 0.00 0.00 60 1004.5
20260505203802 30 264 8.0 17.7 0.00 0.00 0.00 60 1004.4
20260505203505 30 251 8.0 20.9 0.00 0.00 0.00 60 1004.4
20260505203405 30 293 8.0 20.9 0.00 0.00 0.00 61 1004.5
20260505203306 30 266 9.7 20.9 0.00 0.00 0.00 61 1004.5
20260505203205 30 214 9.7 20.9 0.00 0.00 0.00 61 1004.6
20260505203104 30 248 9.7 20.9 0.00 0.00 0.00 62 1004.6
20260505203045 30 200 9.7 20.9 0.00 0.00 0.00 62 1004.6
20260505203005 30 274 9.7 20.9 0.00 0.00 0.00 63 1004.6
20260505202903 30 235 9.7 20.9 0.00 0.00 0.00 63 1004.6
20260505202804 30 224 9.7 20.9 0.00 0.00 0.00 63 1004.6
20260505202605 29 179 12.9 20.9 0.00 0.00 0.00 61 1004.7
20260505202544 29 226 12.9 20.9 0.00 0.00 0.00 61 1004.7
20260505202504 29 186 11.3 20.9 0.00 0.00 0.00 61 1004.8
20260505202456 29 214 11.3 22.5 0.00 0.00 0.00 60 1004.8
20260505202428 29 196 9.7 22.5 0.00 0.00 0.00 61 1004.7
20260505202358 29 247 8.0 22.5 0.00 0.00 0.00 61 1004.8
20260505202327 29 219 9.7 22.5 0.00 0.00 0.00 61 1004.8
20260505202256 29 214 11.3 22.5 0.00 0.00 0.00 60 1004.8
20260505201947 29 219 12.9 22.5 0.00 0.00 0.00 59 1004.8
20260505201848 30 231 12.9 22.5 0.00 0.00 0.00 59 1004.8
20260505201746 30 193 11.3 22.5 0.00 0.00 0.00 60 1004.8
20260505201645 30 195 11.3 22.5 0.00 0.00 0.00 60 1004.9
20260505201542 30 257 14.5 22.5 0.00 0.00 0.00 60 1004.9
20260505201441 30 213 12.9 20.9 0.00 0.00 0.00 61 1004.7
20260505201339 30 268 11.3 20.9 0.00 0.00 0.00 60 1004.8
20260505201240 30 266 9.7 17.7 0.00 0.00 0.00 61 1004.8
20260505201137 30 290 11.3 17.7 0.00 0.00 0.00 60 1004.8
20260505201043 30 220 12.9 17.7 0.00 0.00 0.00 62 1004.8
20260505201036 30 203 11.3 17.7 0.00 0.00 0.00 62 1004.8
20260505200933 30 199 8.0 17.7 0.00 0.00 0.00 61 1004.8
20260505200831 30 244 8.0 20.9 0.00 0.00 0.00 61 1004.7
20260505200732 30 219 9.7 20.9 0.00 0.00 0.00 61 1004.7
20260505200632 30 247 9.7 20.9 0.00 0.00 0.00 61 1004.7
20260505200545 30 202 8.0 22.5 0.00 0.00 0.00 61 1004.7
20260505200531 30 224 6.4 22.5 0.00 0.00 0.00 63 1004.6
20260505200432 30 233 8.0 22.5 0.00 0.00 0.00 61 1004.7
20260505200331 30 259 8.0 22.5 0.00 0.00 0.00 60 1004.7
20260505200231 30 244 8.0 22.5 0.00 0.00 0.00 61 1004.7
20260505200133 30 259 8.0 22.5 0.00 0.00 0.00 60 1004.7
20260505200042 30 261 9.7 22.5 0.00 0.00 0.00 61 1004.7
20260505200031 30 245 9.7 22.5 0.00 0.00 0.00 61 1004.7
20260505195929 30 207 12.9 22.5 0.00 0.00 0.00 61 1004.7
20260505195826 30 265 9.7 25.7 0.00 0.00 0.00 63 1004.8
20260505195724 30 196 12.9 25.7 0.00 0.00 0.00 61 1004.7
20260505195624 30 212 12.9 25.7 0.00 0.00 0.00 61 1004.8
20260505195541 30 202 9.7 25.7 0.00 0.00 0.00 61 1004.8
20260505195524 30 220 9.7 25.7 0.00 0.00 0.00 61 1004.8
20260505195421 29 243 8.0 25.7 0.00 0.00 0.00 62 1004.8
20260505195320 29 235 9.7 25.7 0.00 0.00 0.00 62 1004.8
20260505195218 29 217 11.3 25.7 0.00 0.00 0.00 63 1004.9
20260505195117 29 237 11.3 25.7 0.00 0.00 0.00 63 1004.9
20260505195042 29 235 14.5 25.7 0.00 0.00 0.00 61 1004.9
20260505195017 29 196 14.5 25.7 0.00 0.00 0.00 61 1004.8
20260505194915 29 271 14.5 25.7 0.00 0.00 0.00 61 1004.8
20260505194813 29 254 11.3 25.7 0.00 0.00 0.00 61 1004.8
20260505194710 29 237 9.7 25.7 0.00 0.00 0.00 60 1004.8
20260505194610 29 245 11.3 25.7 0.00 0.00 0.00 61 1004.8
20260505194541 29 223 11.3 25.7 0.00 0.00 0.00 62 1004.8
20260505194508 29 234 11.3 25.7 0.00 0.00 0.00 62 1004.8
20260505194407 29 226 11.3 25.7 0.00 0.00 0.00 62 1004.9
20260505194303 29 254 9.7 25.7 0.00 0.00 0.00 63 1004.9
20260505194219 29 227 11.3 25.7 0.00 0.00 0.00 62 1004.9
20260505194106 29 281 16.1 25.7 0.00 0.00 0.00 62 1004.9
20260505194040 29 251 16.1 25.7 0.00 0.00 0.00 62 1004.9
20260505194003 29 234 16.1 25.7 0.00 0.00 0.00 62 1004.9
20260505193902 29 235 12.9 24.1 0.00 0.00 0.00 62 1004.9
20260505193804 29 189 12.9 24.1 0.00 0.00 0.00 63 1004.9
20260505193702 29 231 12.9 24.1 0.00 0.00 0.00 62 1004.9
20260505193602 29 247 12.9 24.1 0.00 0.00 0.00 63 1004.8
20260505193542 29 250 11.3 24.1 0.00 0.00 0.00 62 1004.8
20260505193504 29 266 9.7 24.1 0.00 0.00 0.00 62 1004.8
20260505193403 29 266 9.7 24.1 0.00 0.00 0.00 62 1004.7
20260505193302 29 217 11.3 24.1 0.00 0.00 0.00 61 1004.7
20260505193204 29 214 16.1 24.1 0.00 0.00 0.00 62 1004.7
20260505193102 29 224 16.1 24.1 0.00 0.00 0.00 61 1004.7
20260505193038 29 226 14.5 24.1 0.00 0.00 0.00 61 1004.7
20260505193000 29 248 12.9 24.1 0.00 0.00 0.00 62 1004.7
20260505192900 29 204 12.9 24.1 0.00 0.00 0.00 62 1004.7
20260505192759 30 241 12.9 24.1 0.00 0.00 0.00 62 1004.7
20260505192658 30 193 12.9 24.1 0.00 0.00 0.00 63 1004.7
20260505192555 30 230 12.9 25.7 0.00 0.00 0.00 62 1004.7
20260505192536 30 206 12.9 25.7 0.00 0.00 0.00 62 1004.7
20260505192454 30 192 11.3 25.7 0.00 0.00 0.00 65 1004.7
20260505192351 30 202 11.3 25.7 0.00 0.00 0.00 63 1004.7
20260505192251 29 217 11.3 25.7 0.00 0.00 0.00 63 1004.7
20260505192137 29 233 12.9 25.7 0.00 0.00 0.00 63 1004.7
20260505192038 29 235 9.7 25.7 0.00 0.00 0.00 63 1004.7
20260505191937 29 175 9.7 27.4 0.00 0.00 0.00 64 1004.7
20260505191836 29 186 11.3 27.4 0.00 0.00 0.00 64 1004.8
20260505191738 29 237 14.5 27.4 0.00 0.00 0.00 63 1004.8
20260505191636 29 230 14.5 27.4 0.00 0.00 0.00 64 1004.9
20260505191536 29 233 12.9 27.4 0.00 0.00 0.00 64 1004.8
20260505191436 29 190 12.9 27.4 0.00 0.00 0.00 64 1004.8
20260505191339 29 204 11.3 27.4 0.00 0.00 0.00 64 1004.8
20260505191236 28 193 11.3 27.4 0.00 0.00 0.00 66 1004.8
20260505191137 28 212 14.5 27.4 0.00 0.00 0.00 65 1004.9
20260505191041 28 213 17.7 27.4 0.00 0.00 0.00 64 1004.8
20260505191034 28 228 17.7 27.4 0.00 0.00 0.00 64 1004.8
20260505190936 28 204 17.7 27.4 0.00 0.00 0.00 63 1004.8
20260505190836 29 240 16.1 22.5 0.00 0.00 0.00 63 1004.7
20260505190736 29 207 14.5 22.5 0.00 0.00 0.00 64 1004.7
20260505190639 29 196 11.3 22.5 0.00 0.00 0.00 65 1004.6
20260505190535 28 172 9.7 22.5 0.00 0.00 0.00 65 1004.6
20260505190437 28 206 12.9 22.5 0.00 0.00 0.00 65 1004.6
20260505190336 28 220 12.9 22.5 0.00 0.00 0.00 64 1004.6
20260505190236 28 204 12.9 22.5 0.00 0.00 0.00 64 1004.6
20260505190136 28 199 12.9 25.7 0.00 0.00 0.00 64 1004.7
20260505190034 28 216 14.5 29.0 0.00 0.00 0.00 63 1004.6
20260505185933 28 185 14.5 29.0 0.00 0.00 0.00 63 1004.7
20260505185831 28 223 14.5 29.0 0.00 0.00 0.00 63 1004.7
20260505185731 28 196 14.5 29.0 0.00 0.00 0.00 62 1004.7
20260505185633 28 199 12.9 29.0 0.00 0.00 0.00 63 1004.8
20260505185531 28 274 12.9 29.0 0.00 0.00 0.00 62 1004.7
20260505185432 28 212 14.5 29.0 0.00 0.00 0.00 62 1004.7
20260505185331 28 233 17.7 29.0 0.00 0.00 0.00 62 1004.8
20260505185231 28 190 17.7 29.0 0.00 0.00 0.00 62 1004.7
20260505185130 28 200 14.5 29.0 0.00 0.00 0.00 62 1004.7
20260505185033 28 200 12.9 25.7 0.00 0.00 0.00 63 1004.8
20260505185028 28 283 12.9 25.7 0.00 0.00 0.00 63 1004.8
20260505184927 28 203 11.3 25.7 0.00 0.00 0.00 64 1004.8
20260505184816 28 299 11.3 25.7 0.00 0.00 0.00 65 1004.8
20260505184714 28 274 12.9 25.7 0.00 0.00 0.00 64 1004.8
20260505184615 28 217 12.9 25.7 0.00 0.00 0.00 63 1004.9
20260505184531 28 183 12.9 25.7 0.00 0.00 0.00 63 1005.0
20260505184513 28 244 12.9 25.7 0.00 0.00 0.00 63 1005.0
20260505184411 28 224 12.9 25.7 0.00 0.00 0.00 63 1004.9
20260505184310 28 248 11.3 25.7 0.00 0.00 0.00 63 1004.9
20260505184208 28 274 14.5 25.7 0.00 0.00 0.00 62 1005.0
20260505184104 28 245 17.7 25.7 0.00 0.00 0.00 64 1004.9
20260505184032 28 204 16.1 25.7 0.00 0.00 0.00 64 1004.9
20260505184005 28 210 14.5 25.7 0.00 0.00 0.00 65 1004.9
20260505183902 28 216 12.9 24.1 0.00 0.00 0.00 63 1004.9
20260505183759 28 259 16.1 24.1 0.00 0.00 0.00 63 1004.9
20260505183657 29 182 14.5 24.1 0.00 0.00 0.00 63 1004.9
20260505183556 29 220 12.9 22.5 0.00 0.00 0.00 65 1004.9
20260505183532 29 235 12.9 22.5 0.00 0.00 0.00 64 1004.8
20260505183455 29 240 12.9 22.5 0.00 0.00 0.00 64 1004.8
20260505183354 29 250 11.3 22.5 0.00 0.00 0.00 66 1004.9
20260505183253 29 223 9.7 22.5 0.00 0.00 0.00 66 1004.9
20260505183150 29 234 12.9 22.5 0.00 0.00 0.00 66 1004.8
20260505183049 29 231 12.9 22.5 0.00 0.00 0.00 64 1004.8
20260505183030 29 243 11.3 17.7 0.00 0.00 0.00 65 1004.8
20260505182948 29 185 11.3 25.7 0.00 0.00 0.00 66 1004.8
20260505182846 29 220 9.7 25.7 0.00 0.00 0.00 64 1004.8
20260505182744 29 220 9.7 25.7 0.00 0.00 0.00 67 1004.7
20260505182644 28 195 9.7 25.7 0.00 0.00 0.00 67 1004.7
20260505182542 28 202 8.0 25.7 0.00 0.00 0.00 67 1004.8
20260505182533 28 221 9.7 25.7 0.00 0.00 0.00 66 1004.7
20260505182440 28 278 9.7 25.7 0.00 0.00 0.00 65 1004.7
20260505182339 28 210 11.3 25.7 0.00 0.00 0.00 65 1004.8
20260505182309 28 183 9.7 25.7 0.00 0.00 0.00 65 1004.8
20260505182138 28 224 14.5 25.7 0.00 0.00 0.00 65 1004.8
20260505182038 28 209 16.1 25.7 0.00 0.00 0.00 66 1004.8
20260505182019 28 195 14.5 25.7 0.00 0.00 0.00 66 1004.8
20260505181937 28 179 14.5 20.9 0.00 0.00 0.00 66 1004.8
20260505181837 28 168 14.5 19.3 0.00 0.00 0.00 66 1004.9
20260505181737 28 203 12.9 19.3 0.00 0.00 0.00 67 1004.9
20260505181640 28 179 11.3 17.7 0.00 0.00 0.00 67 1005.0
20260505181537 28 210 11.3 19.3 0.00 0.00 0.00 67 1004.9
20260505181519 28 202 11.3 19.3 0.00 0.00 0.00 67 1005.0
20260505181437 28 202 11.3 24.1 0.00 0.00 0.00 67 1005.0
20260505181335 28 173 9.7 24.1 0.00 0.00 0.00 67 1005.0
20260505181233 28 214 9.7 27.4 0.00 0.00 0.00 68 1005.0
20260505181134 28 288 9.7 27.4 0.00 0.00 0.00 67 1005.0
20260505181019 28 190 11.3 27.4 0.00 0.00 0.00 68 1005.0
20260505181011 28 217 11.3 27.4 0.00 0.00 0.00 67 1005.0
20260505180919 28 219 16.1 27.4 0.00 0.00 0.00 66 1005.0
20260505180909 28 217 12.9 27.4 0.00 0.00 0.00 67 1005.0
20260505180844 28 197 14.5 27.4 0.00 0.00 0.00 67 1005.0
20260505180816 28 204 12.9 27.4 0.00 0.00 0.00 67 1005.0
20260505180747 28 188 14.5 27.4 0.00 0.00 0.00 67 1005.0
20260505180505 28 206 14.5 27.4 0.00 0.00 0.00 66 1005.0
20260505180404 28 216 12.9 27.4 0.00 0.00 0.00 68 1005.0
20260505180305 28 207 11.3 25.7 0.00 0.00 0.00 68 1005.0
20260505180204 28 240 12.9 25.7 0.00 0.00 0.00 68 1005.0
20260505180104 28 240 16.1 25.7 0.00 0.00 0.00 67 1005.0
20260505180017 27 216 14.5 25.7 0.00 0.00 0.00 67 1004.9
20260505180004 27 226 14.5 25.7 0.00 0.00 0.00 68 1004.9
20260505175905 27 186 14.5 24.1 0.00 0.00 0.00 68 1005.0
20260505175805 27 192 14.5 24.1 0.00 0.00 0.00 68 1004.9
20260505175701 27 248 12.9 24.1 0.00 0.00 0.00 67 1004.9
20260505175559 27 202 11.3 29.0 0.00 0.00 0.00 68 1004.9
20260505175514 27 275 12.9 29.0 0.00 0.00 0.00 68 1004.9
20260505175458 27 254 12.9 29.0 0.00 0.00 0.00 68 1004.9
20260505175356 27 247 14.5 29.0 0.00 0.00 0.00 67 1004.9
20260505175247 27 254 16.1 29.0 0.00 0.00 0.00 67 1004.9
20260505175142 27 204 14.5 29.0 0.00 0.00 0.00 68 1005.0
20260505175040 27 165 14.5 29.0 0.00 0.00 0.00 69 1005.0
20260505175016 27 223 14.5 32.2 0.00 0.00 0.00 69 1004.9
20260505174939 27 216 12.9 32.2 0.00 0.00 0.00 69 1004.9
20260505174837 27 180 11.3 32.2 0.00 0.00 0.00 68 1004.9
20260505174736 27 221 14.5 32.2 0.00 0.00 0.00 69 1004.9
20260505174641 27 217 14.5 32.2 0.00 0.00 0.00 69 1004.9
20260505174534 27 210 12.9 32.2 0.00 0.00 0.00 68 1004.9
20260505174516 27 193 12.9 32.2 0.00 0.00 0.00 68 1004.9
20260505174435 27 257 14.5 32.2 0.00 0.00 0.00 69 1004.9
20260505174335 27 188 14.5 32.2 0.00 0.00 0.00 68 1004.9
20260505174234 27 245 14.5 32.2 0.00 0.00 0.00 68 1004.9
20260505174134 27 220 17.7 32.2 0.00 0.00 0.00 68 1004.9
20260505174035 27 228 19.3 32.2 0.00 0.00 0.00 68 1005.0
20260505174011 27 228 17.7 27.4 0.00 0.00 0.00 68 1005.0
20260505173936 27 200 16.1 27.4 0.00 0.00 0.00 68 1005.0
20260505173834 27 158 14.5 27.4 0.00 0.00 0.00 70 1004.9
20260505173734 27 192 14.5 27.4 0.00 0.00 0.00 69 1005.0
20260505173631 27 204 12.9 27.4 0.00 0.00 0.00 69 1004.9
20260505173532 27 162 14.5 27.4 0.00 0.00 0.00 70 1004.9
20260505173508 27 209 16.1 27.4 0.00 0.00 0.00 69 1004.9
20260505173432 27 209 17.7 27.4 0.00 0.00 0.00 69 1004.9
20260505173332 27 162 17.7 27.4 0.00 0.00 0.00 69 1005.0
20260505173230 27 200 14.5 27.4 0.00 0.00 0.00 69 1004.9
20260505173132 27 186 12.9 27.4 0.00 0.00 0.00 70 1004.9
20260505173032 27 214 14.5 27.4 0.00 0.00 0.00 71 1004.9
20260505173007 27 173 12.9 27.4 0.00 0.00 0.00 71 1004.9
20260505172931 27 244 14.5 27.4 0.00 0.00 0.00 71 1004.9
20260505172831 27 185 16.1 27.4 0.00 0.00 0.00 70 1004.9
20260505172733 27 210 19.3 27.4 0.00 0.00 0.00 69 1004.9
20260505172631 27 178 17.7 27.4 0.00 0.00 0.00 70 1004.9
20260505172532 27 173 16.1 27.4 0.00 0.00 0.00 71 1004.9
20260505172505 27 206 14.5 27.4 0.00 0.00 0.00 71 1004.9
20260505172433 27 203 14.5 27.4 0.00 0.00 0.00 70 1004.9
20260505172332 27 245 17.7 27.4 0.00 0.00 0.00 71 1004.9
20260505172232 27 166 17.7 27.4 0.00 0.00 0.00 71 1005.0
20260505172131 27 162 14.5 27.4 0.00 0.00 0.00 72 1004.9
20260505172033 27 202 9.7 27.4 0.00 0.00 0.00 73 1004.9
20260505172005 27 214 9.7 27.4 0.00 0.00 0.00 73 1004.9
20260505171932 27 219 9.7 27.4 0.00 0.00 0.00 73 1004.8
20260505171828 27 223 11.3 27.4 0.00 0.00 0.00 72 1004.9
20260505171729 26 214 14.5 27.4 0.00 0.00 0.00 72 1004.8
20260505171608 26 197 16.1 27.4 0.00 0.00 0.00 72 1004.9
20260505171507 26 175 12.9 27.4 0.00 0.00 0.00 72 1004.9
20260505171404 26 169 9.7 25.7 0.00 0.00 0.00 73 1004.9
20260505171305 26 147 12.9 25.7 0.00 0.00 0.00 72 1004.9
20260505171200 26 190 16.1 25.7 0.00 0.00 0.00 72 1004.9
20260505171058 26 182 14.5 25.7 0.00 0.00 0.00 73 1005.0
20260505171003 26 178 14.5 24.1 0.00 0.00 0.00 72 1005.0
20260505170957 26 207 14.5 24.1 0.00 0.00 0.00 72 1005.0
20260505170852 26 216 14.5 24.1 0.00 0.00 0.00 72 1005.0
20260505170824 26 199 16.1 25.7 0.00 0.00 0.00 73 1004.9
20260505170806 26 178 12.9 25.7 0.00 0.00 0.00 73 1005.0
20260505170738 26 202 14.5 25.7 0.00 0.00 0.00 73 1005.1
20260505170707 26 216 12.9 25.7 0.00 0.00 0.00 73 1005.1
20260505170643 26 188 12.9 25.7 0.00 0.00 0.00 73 1004.9
20260505170632 26 220 12.9 25.7 0.00 0.00 0.00 73 1004.9
20260505170353 26 164 12.9 25.7 0.00 0.00 0.00 73 1004.7
20260505170324 26 230 14.5 25.7 0.00 0.00 0.00 73 1004.6
20260505170252 26 190 16.1 25.7 0.00 0.00 0.00 73 1004.7
20260505170225 26 162 16.1 25.7 0.00 0.00 0.00 73 1004.8
20260505165936 26 217 14.5 25.7 0.00 0.00 0.00 73 1004.9
20260505165839 26 216 14.5 25.7 0.00 0.00 0.00 73 1005.1
20260505165736 26 214 14.5 25.7 0.00 0.00 0.00 73 1005.1
20260505165636 26 207 14.5 25.7 0.00 0.00 0.00 73 1005.1
20260505165534 26 196 14.5 22.5 0.00 0.00 0.00 72 1005.1
20260505165459 26 180 14.5 22.5 0.00 0.00 0.00 73 1005.0
20260505165437 26 202 14.5 22.5 0.00 0.00 0.00 73 1005.0
20260505165334 26 195 14.5 22.5 0.00 0.00 0.00 73 1005.0
20260505165235 26 268 12.9 22.5 0.00 0.00 0.00 74 1005.1
20260505165134 26 171 14.5 22.5 0.00 0.00 0.00 74 1005.0
20260505165034 26 221 16.1 22.5 0.00 0.00 0.00 73 1004.9
20260505164959 26 238 14.5 22.5 0.00 0.00 0.00 73 1004.8
20260505164936 26 182 14.5 22.5 0.00 0.00 0.00 73 1004.8
20260505164901 26 241 9.7 24.1 0.00 0.00 0.00 75 1004.9
20260505164846 26 178 14.5 22.5 0.00 0.00 0.00 73 1004.9
20260505164818 26 224 12.9 22.5 0.00 0.00 0.00 73 1004.9
20260505164749 26 131 8.0 22.5 0.00 0.00 0.00 75 1005.0
20260505164720 26 217 9.7 24.1 0.00 0.00 0.00 75 1004.9
20260505164430 26 188 9.7 24.1 0.00 0.00 0.00 75 1004.9
20260505164319 25 228 11.3 24.1 0.00 0.00 0.00 74 1004.9
20260505164218 25 235 14.5 24.1 0.00 0.00 0.00 74 1004.9
20260505164115 25 207 14.5 24.1 0.00 0.00 0.00 74 1004.9
20260505164013 25 173 14.5 24.1 0.00 0.00 0.00 75 1005.0
20260505163953 25 203 14.5 24.1 0.00 0.00 0.00 75 1005.0
20260505163933 25 197 11.3 22.5 0.00 0.00 0.00 75 1005.1
20260505163921 25 204 14.5 24.1 0.00 0.00 0.00 75 1005.0
20260505163852 25 203 12.9 24.1 0.00 0.00 0.00 75 1004.9
20260505163819 25 176 14.5 24.1 0.00 0.00 0.00 75 1005.0
20260505163737 25 176 14.5 24.1 0.00 0.00 0.00 75 1005.1
20260505163707 25 190 12.9 22.5 0.00 0.00 0.00 75 1005.1
20260505163425 25 175 8.0 20.9 0.00 0.00 0.00 76 1005.0
20260505163341 25 233 9.7 20.9 0.00 0.00 0.00 76 1005.1
20260505163305 25 212 12.9 20.9 0.00 0.00 0.00 76 1005.1
20260505163235 25 209 11.3 20.9 0.00 0.00 0.00 76 1005.0
20260505163206 25 196 8.0 20.9 0.00 0.00 0.00 76 1005.0
20260505162905 25 202 8.0 27.4 0.00 0.00 0.00 76 1004.9
20260505162853 25 217 11.3 27.4 0.00 0.00 0.00 76 1005.2
20260505162831 25 161 9.7 27.4 0.00 0.00 0.00 76 1004.9
20260505162804 25 152 12.9 27.4 0.00 0.00 0.00 76 1004.9
20260505162735 25 214 14.5 27.4 0.00 0.00 0.00 75 1005.1
20260505162706 25 202 12.9 27.4 0.00 0.00 0.00 76 1005.2
20260505162405 25 192 9.7 27.4 0.00 0.00 0.00 76 1005.2
20260505162307 25 202 11.3 27.4 0.00 0.00 0.00 76 1005.2
20260505162206 25 234 14.5 27.4 0.00 0.00 0.00 76 1005.2
20260505162106 25 217 14.5 27.4 0.00 0.00 0.00 75 1005.1
20260505162007 25 202 14.5 27.4 0.00 0.00 0.00 75 1005.1
20260505161949 25 157 16.1 27.4 0.00 0.00 0.00 75 1005.1
20260505161905 25 162 16.1 24.1 0.00 0.00 0.00 75 1005.1
20260505161806 25 209 14.5 24.1 0.00 0.00 0.00 75 1005.1
20260505161706 25 169 14.5 24.1 0.00 0.00 0.00 75 1005.0
20260505161605 25 220 12.9 24.1 0.00 0.00 0.00 75 1005.0
20260505161506 25 217 11.3 25.7 0.00 0.00 0.00 75 1004.9
20260505161450 25 223 11.3 25.7 0.00 0.00 0.00 75 1004.9
20260505161401 25 216 11.3 25.7 0.00 0.00 0.00 75 1005.0
20260505161256 25 207 12.9 25.7 0.00 0.00 0.00 75 1004.9
20260505161155 25 206 12.9 25.7 0.00 0.00 0.00 75 1005.0
20260505161052 25 214 14.5 25.7 0.00 0.00 0.00 75 1004.9
20260505160952 25 193 14.5 25.7 0.00 0.00 0.00 75 1004.9
20260505160840 25 161 14.5 25.7 0.00 0.00 0.00 75 1004.8
20260505160738 25 235 12.9 25.7 0.00 0.00 0.00 75 1004.8
20260505160637 25 192 14.5 25.7 0.00 0.00 0.00 75 1004.8
20260505160605 23 196 11.3 29.0 0.00 0.00 0.00 80 1004.9
20260505160555 25 200 14.5 25.7 0.00 0.00 0.00 75 1004.7
20260505160549 25 172 17.7 33.8 0.00 0.00 0.00 76 1004.7
20260505160542 25 234 16.1 33.8 0.00 0.00 0.00 77 1004.6
20260505160536 25 206 11.3 27.4 0.00 0.00 0.00 75 1004.7
20260505160527 25 195 19.3 33.8 0.00 0.00 0.00 77 1004.5
20260505160521 23 186 9.7 29.0 0.00 0.00 0.00 80 1004.8
20260505160459 25 219 11.3 27.4 0.00 0.00 0.00 75 1004.7
20260505160452 25 286 11.3 27.4 0.00 0.00 0.00 75 1004.7
20260505160423 25 185 14.5 27.4 0.00 0.00 0.00 75 1004.8
20260505160352 25 188 12.9 27.4 0.00 0.00 0.00 75 1004.8
20260505160325 25 217 12.9 27.4 0.00 0.00 0.00 76 1004.8
20260505153331 23 202 12.9 29.0 0.00 0.00 0.00 80 1004.5
20260505153301 23 195 14.5 29.0 0.00 0.00 0.00 79 1004.6
20260505153234 23 228 16.1 29.0 0.00 0.00 0.00 79 1004.7
20260505153209 23 202 14.5 29.0 0.00 0.00 0.00 80 1004.6
20260505153139 23 182 14.5 29.0 0.00 0.00 0.00 80 1004.6
20260505153105 23 213 16.1 25.7 0.00 0.00 0.00 80 1004.7
20260505153036 23 207 16.1 24.1 0.00 0.00 0.00 79 1004.7
20260505153007 23 230 12.9 22.5 0.00 0.00 0.00 80 1004.8
20260505151223 23 186 9.7 29.0 0.00 0.00 0.00 80 1004.8
20260505151155 23 213 9.7 29.0 0.00 0.00 0.00 80 1004.9
20260505150907 23 182 11.3 29.0 0.00 0.00 0.00 80 1004.8
20260505150758 23 221 11.3 29.0 0.00 0.00 0.00 80 1004.8
20260505150657 23 234 11.3 29.0 0.00 0.00 0.00 80 1004.8
20260505150555 23 209 11.3 29.0 0.00 0.00 0.00 80 1004.7
20260505150454 23 234 12.9 29.0 0.00 0.00 0.00 80 1004.8
20260505150431 23 162 14.5 29.0 0.00 0.00 0.00 80 1004.8
20260505150354 23 197 16.1 29.0 0.00 0.00 0.00 80 1004.7
20260505150300 23 206 17.7 29.0 0.00 0.00 0.00 80 1004.7
20260505150150 23 207 12.9 30.6 0.00 0.00 0.00 81 1004.7
20260505140615 22 209 17.7 30.6 0.00 0.00 0.00 83 1004.5
20260505140512 22 212 17.7 30.6 0.00 0.00 0.00 83 1004.6
20260505140430 22 203 17.7 30.6 0.00 0.00 0.00 83 1004.6
20260505140410 22 196 17.7 30.6 0.00 0.00 0.00 83 1004.5
20260505140310 22 214 20.9 30.6 0.00 0.00 0.00 83 1004.5
20260505140210 22 204 14.5 29.0 0.00 0.00 0.00 83 1004.5
20260505140108 22 195 12.9 25.7 0.00 0.00 0.00 83 1004.6
20260505130239 22 161 9.7 30.6 0.00 0.00 0.00 84 1004.6
20260505130136 22 168 12.9 30.6 0.00 0.00 0.00 84 1004.6
20260505125028 22 190 12.9 25.7 0.00 0.00 0.00 84 1004.6
20260505124933 22 186 12.9 25.7 0.00 0.00 0.00 84 1004.6
20260505124926 22 203 12.9 25.7 0.00 0.00 0.00 84 1004.5
20260505124825 22 192 14.5 29.0 0.00 0.00 0.00 84 1004.6
20260505124723 22 176 14.5 29.0 0.00 0.00 0.00 84 1004.6
20260505124612 22 252 9.7 29.0 0.00 0.00 0.00 84 1004.5
20260505124511 22 176 9.7 29.0 0.00 0.00 0.00 84 1004.5
20260505124429 22 193 12.9 29.0 0.00 0.00 0.00 84 1004.5
20260505124409 22 221 14.5 29.0 0.00 0.00 0.00 84 1004.5
20260505124308 22 179 16.1 29.0 0.00 0.00 0.00 84 1004.4
20260505124205 22 220 14.5 29.0 0.00 0.00 0.00 84 1004.4
20260505124104 22 196 12.9 29.0 0.00 0.00 0.00 84 1004.4
20260505124005 22 210 17.7 29.0 0.00 0.00 0.00 83 1004.3
20260505123930 22 217 16.1 29.0 0.00 0.00 0.00 83 1004.3
20260505123904 22 203 16.1 29.0 0.00 0.00 0.00 83 1004.4
20260505123806 22 154 14.5 27.4 0.00 0.00 0.00 83 1004.3
20260505123702 22 233 12.9 27.4 0.00 0.00 0.00 83 1004.3
20260505123552 22 189 12.9 27.4 0.00 0.00 0.00 83 1004.4
20260505123449 22 209 14.5 27.4 0.00 0.00 0.00 83 1004.3
20260505123428 22 210 14.5 27.4 0.00 0.00 0.00 84 1004.3
20260505123349 22 209 14.5 27.4 0.00 0.00 0.00 84 1004.3
20260505123246 22 157 11.3 22.5 0.00 0.00 0.00 84 1004.2
20260505123147 22 223 11.3 22.5 0.00 0.00 0.00 84 1004.2
20260505123045 22 141 11.3 22.5 0.00 0.00 0.00 84 1004.3
20260505122942 22 226 12.9 22.5 0.00 0.00 0.00 84 1004.3
20260505122927 22 186 12.9 22.5 0.00 0.00 0.00 84 1004.3
20260505122840 22 202 11.3 24.1 0.00 0.00 0.00 84 1004.2
20260505122739 22 138 11.3 24.1 0.00 0.00 0.00 83 1004.3
20260505122632 22 202 12.9 24.1 0.00 0.00 0.00 83 1004.1
20260505122533 22 182 12.9 24.1 0.00 0.00 0.00 84 1004.2
20260505122435 22 195 12.9 24.1 0.00 0.00 0.00 83 1004.3
20260505122429 22 204 12.9 24.1 0.00 0.00 0.00 83 1004.3
20260505122334 22 226 9.7 24.1 0.00 0.00 0.00 83 1004.2
20260505122234 22 192 11.3 24.1 0.00 0.00 0.00 83 1004.1
20260505122133 22 169 12.9 24.1 0.00 0.00 0.00 84 1004.2
20260505122032 22 178 14.5 24.1 0.00 0.00 0.00 84 1004.1
20260505121934 22 212 12.9 24.1 0.00 0.00 0.00 84 1004.1
20260505121927 22 219 12.9 24.1 0.00 0.00 0.00 84 1004.1
20260505121832 22 209 9.7 19.3 0.00 0.00 0.00 84 1004.1
20260505121732 22 204 8.0 22.5 0.00 0.00 0.00 84 1004.1
20260505121633 22 171 9.7 22.5 0.00 0.00 0.00 84 1004.1
20260505121533 22 204 11.3 22.5 0.00 0.00 0.00 84 1004.0
20260505121435 22 243 12.9 22.5 0.00 0.00 0.00 84 1004.0
20260505121427 22 221 11.3 22.5 0.00 0.00 0.00 84 1004.0
20260505121333 22 188 11.3 22.5 0.00 0.00 0.00 84 1004.1
20260505121233 22 207 11.3 22.5 0.00 0.00 0.00 84 1004.1
20260505121132 22 169 9.7 22.5 0.00 0.00 0.00 84 1004.0
20260505121034 22 173 9.7 22.5 0.00 0.00 0.00 84 1004.1
20260505120935 22 185 11.3 22.5 0.00 0.00 0.00 84 1004.0
20260505120927 22 200 11.3 22.5 0.00 0.00 0.00 84 1004.0
20260505120831 22 155 11.3 22.5 0.00 0.00 0.00 84 1004.1
20260505120729 22 168 9.7 22.5 0.00 0.00 0.00 84 1004.1
20260505120630 22 193 9.7 22.5 0.00 0.00 0.00 84 1004.0
20260505120529 22 193 9.7 22.5 0.00 0.00 0.00 84 1003.8
20260505120430 22 195 11.3 22.5 0.00 0.00 0.00 83 1004.1
20260505120426 22 192 11.3 22.5 0.00 0.00 0.00 83 1004.1
20260505120327 22 173 11.3 22.5 0.00 0.00 0.00 83 1004.0
20260505120224 22 223 8.0 20.9 0.00 0.00 0.00 83 1004.1
20260505120123 22 210 6.4 22.5 0.00 0.00 0.00 83 1004.0
20260505120011 22 140 8.0 27.4 0.00 0.00 0.00 83 1004.0
20260505115910 22 186 9.7 27.4 0.00 0.00 0.00 83 1004.0
20260505115808 22 197 9.7 27.4 0.00 0.00 0.00 83 1003.8
20260505115707 22 159 11.3 27.4 0.00 0.00 0.00 83 1004.0
20260505115606 22 147 12.9 27.4 0.00 0.00 0.00 83 1004.0
20260505115505 22 179 12.9 27.4 0.00 0.00 0.00 83 1003.8
20260505115426 22 186 12.9 27.4 0.00 0.00 0.00 83 1003.8
20260505115405 22 220 11.3 27.4 0.00 0.00 0.00 83 1004.0
20260505115307 22 216 14.5 27.4 0.00 0.00 0.00 83 1004.0
20260505115205 22 202 17.7 27.4 0.00 0.00 0.00 83 1003.7
20260505115105 22 200 14.5 27.4 0.00 0.00 0.00 83 1003.8
20260505115007 22 166 12.9 22.5 0.00 0.00 0.00 83 1003.7
20260505114927 22 196 14.5 22.5 0.00 0.00 0.00 83 1003.7
20260505114905 22 207 12.9 22.5 0.00 0.00 0.00 83 1003.7
20260505114803 22 224 9.7 22.5 0.00 0.00 0.00 83 1003.7
20260505114656 22 206 8.0 30.6 0.00 0.00 0.00 83 1003.7
20260505114550 22 203 12.9 30.6 0.00 0.00 0.00 83 1003.7
20260505114449 22 230 16.1 30.6 0.00 0.00 0.00 83 1003.8
20260505114426 22 210 16.1 30.6 0.00 0.00 0.00 83 1003.8
20260505114347 22 148 16.1 30.6 0.00 0.00 0.00 83 1003.8
20260505114246 22 202 16.1 30.6 0.00 0.00 0.00 83 1003.7
20260505114146 22 235 14.5 30.6 0.00 0.00 0.00 83 1003.7
20260505114044 22 210 12.9 30.6 0.00 0.00 0.00 83 1003.6
20260505113942 22 213 14.5 30.6 0.00 0.00 0.00 83 1003.6
20260505113927 22 234 14.5 30.6 0.00 0.00 0.00 83 1003.6
20260505113843 22 189 16.1 30.6 0.00 0.00 0.00 83 1003.7
20260505113740 22 189 14.5 30.6 0.00 0.00 0.00 84 1003.5
20260505113635 22 204 12.9 24.1 0.00 0.00 0.00 84 1003.6
20260505113534 22 182 12.9 24.1 0.00 0.00 0.00 84 1003.5
20260505113437 22 206 8.0 24.1 0.00 0.00 0.00 84 1003.5
20260505113427 22 183 8.0 24.1 0.00 0.00 0.00 84 1003.5
20260505113335 22 152 11.3 24.1 0.00 0.00 0.00 84 1003.4
20260505113236 21 157 12.9 24.1 0.00 0.00 0.00 84 1003.6
20260505113134 21 158 9.7 17.7 0.00 0.00 0.00 84 1003.6
20260505113034 21 154 9.7 19.3 0.00 0.00 0.00 84 1003.5
20260505112930 21 193 9.7 19.3 0.00 0.00 0.00 84 1003.6
20260505112834 21 212 9.7 19.3 0.00 0.00 0.00 84 1003.7
20260505112733 21 152 9.7 20.9 0.00 0.00 0.00 84 1003.7
20260505112632 21 213 9.7 20.9 0.00 0.00 0.00 84 1003.7
20260505112532 22 188 8.0 20.9 0.00 0.00 0.00 84 1003.8
20260505112435 21 197 8.0 20.9 0.00 0.00 0.00 84 1003.7
20260505112427 21 214 8.0 20.9 0.00 0.00 0.00 84 1003.7
20260505112334 22 157 11.3 20.9 0.00 0.00 0.00 84 1003.7
20260505112233 22 162 12.9 20.9 0.00 0.00 0.00 84 1003.7
20260505112134 21 192 14.5 20.9 0.00 0.00 0.00 84 1003.7
20260505112033 22 183 11.3 20.9 0.00 0.00 0.00 84 1003.8
20260505111936 21 235 11.3 24.1 0.00 0.00 0.00 84 1003.7
20260505111928 21 197 11.3 24.1 0.00 0.00 0.00 84 1003.7
20260505111834 21 200 14.5 24.1 0.00 0.00 0.00 84 1003.6
20260505111732 21 189 14.5 24.1 0.00 0.00 0.00 84 1003.7
20260505111632 21 241 16.1 25.7 0.00 0.00 0.00 84 1003.7
20260505111534 21 188 9.7 25.7 0.00 0.00 0.00 84 1003.6
20260505111428 21 188 9.7 25.7 0.00 0.00 0.00 84 1003.6
20260505111334 21 188 9.7 25.7 0.00 0.00 0.00 84 1003.7
20260505111230 21 196 12.9 25.7 0.00 0.00 0.00 84 1003.6
20260505111131 21 252 14.5 27.4 0.00 0.00 0.00 83 1003.6
20260505111026 21 196 11.3 27.4 0.00 0.00 0.00 83 1003.4
20260505110914 22 193 12.9 27.4 0.00 0.00 0.00 83 1003.5
20260505110905 21 204 14.5 27.4 0.00 0.00 0.00 83 1003.5
20260505110814 21 200 12.9 27.4 0.00 0.00 0.00 83 1003.5
20260505110712 22 223 12.9 27.4 0.00 0.00 0.00 83 1003.5
20260505110609 22 190 14.5 27.4 0.00 0.00 0.00 83 1003.6
20260505110505 22 203 11.3 27.4 0.00 0.00 0.00 83 1003.5
20260505110406 22 182 11.3 27.4 0.00 0.00 0.00 83 1003.5
20260505110301 22 189 11.3 27.4 0.00 0.00 0.00 83 1003.4
20260505110203 22 209 9.7 25.7 0.00 0.00 0.00 83 1003.5
20260505102124 22 230 16.1 29.0 0.00 0.00 0.00 83 1003.6
20260505102026 22 193 14.5 29.0 0.00 0.00 0.00 83 1003.6
20260505101926 22 190 14.5 27.4 0.00 0.00 0.00 83 1003.7
20260505101845 22 219 14.5 27.4 0.00 0.00 0.00 83 1003.7
20260505101825 22 213 16.1 27.4 0.00 0.00 0.00 83 1003.7
20260505101724 22 182 14.5 38.6 0.00 0.00 0.00 83 1003.6
20260505101624 22 173 14.5 38.6 0.00 0.00 0.00 83 1003.5
20260505101526 22 192 14.5 38.6 0.00 0.00 0.00 83 1003.6
20260505101425 22 226 11.3 38.6 0.00 0.00 0.00 83 1003.6
20260505101342 22 202 11.3 38.6 0.00 0.00 0.00 83 1003.5
20260505101324 22 199 11.3 38.6 0.00 0.00 0.00 83 1003.5
20260505101225 22 180 14.5 38.6 0.00 0.00 0.00 83 1003.5
20260505101124 22 212 12.9 38.6 0.00 0.00 0.00 83 1003.6
20260505101024 22 182 14.5 38.6 0.00 0.00 0.00 83 1003.6
20260505100924 22 224 22.5 38.6 0.00 0.00 0.00 83 1003.6
20260505100842 22 183 22.5 38.6 0.00 0.00 0.00 83 1003.5
20260505100825 22 179 22.5 38.6 0.00 0.00 0.00 83 1003.5
20260505100726 22 178 19.3 33.8 0.00 0.00 0.00 83 1003.8
20260505100621 22 197 17.7 30.6 0.00 0.00 0.00 83 1003.5
20260505100518 22 182 16.1 27.4 0.00 0.00 0.00 83 1003.4
20260505100419 22 185 14.5 27.4 0.00 0.00 0.00 83 1003.3
20260505100342 22 189 16.1 27.4 0.00 0.00 0.00 83 1003.3
20260505100318 22 206 16.1 25.7 0.00 0.00 0.00 83 1003.5
20260505100215 22 155 17.7 29.0 0.00 0.00 0.00 83 1003.5
20260505100115 22 199 16.1 29.0 0.00 0.00 0.00 83 1003.4
20260505100013 22 176 16.1 29.0 0.00 0.00 0.00 83 1003.5
20260505095913 22 140 12.9 29.0 0.00 0.00 0.00 83 1003.4
20260505095839 22 207 12.9 29.0 0.00 0.00 0.00 83 1003.4
20260505095810 22 172 11.3 29.0 0.00 0.00 0.00 83 1003.4
20260505095711 22 145 12.9 29.0 0.00 0.00 0.00 83 1003.4
20260505095611 22 175 14.5 29.0 0.00 0.00 0.00 83 1003.6
20260505095510 22 186 16.1 29.0 0.00 0.00 0.00 83 1003.6
20260505095408 22 192 17.7 29.0 0.00 0.00 0.00 83 1003.6
20260505095341 22 189 16.1 29.0 0.00 0.00 0.00 83 1003.6
20260505095307 22 192 16.1 29.0 0.00 0.00 0.00 83 1003.5
20260505095205 22 243 14.5 27.4 0.00 0.00 0.00 83 1003.5
20260505095107 21 203 14.5 27.4 0.00 0.00 0.00 83 1003.5
20260505094959 22 172 11.3 24.1 0.00 0.00 0.00 83 1003.5
20260505094858 22 141 11.3 24.1 0.00 0.00 0.00 83 1003.6
20260505094837 22 180 12.9 24.1 0.00 0.00 0.00 83 1003.6
20260505094756 22 171 12.9 27.4 0.00 0.00 0.00 83 1003.6
20260505094750 22 200 9.7 29.0 0.00 0.00 0.00 83 1003.5
20260505094723 22 195 12.9 27.4 0.00 0.00 0.00 83 1003.6
20260505094654 22 180 11.3 29.0 0.00 0.00 0.00 83 1003.5
20260505094622 22 192 12.9 29.0 0.00 0.00 0.00 83 1003.5
20260505094550 22 212 11.3 29.0 0.00 0.00 0.00 83 1003.5
20260505094246 22 196 11.3 29.0 0.00 0.00 0.00 83 1003.5
20260505094138 22 213 11.3 29.0 0.00 0.00 0.00 83 1003.5
20260505094037 22 185 12.9 29.0 0.00 0.00 0.00 83 1003.5
20260505093933 22 168 16.1 29.0 0.00 0.00 0.00 83 1003.5
20260505093832 22 217 16.1 29.0 0.00 0.00 0.00 83 1003.6
20260505093742 21 179 9.7 24.1 0.00 0.00 0.00 83 1003.7
20260505093706 21 207 14.5 29.0 0.00 0.00 0.00 83 1003.6
20260505093638 21 183 12.9 24.1 0.00 0.00 0.00 83 1003.6
20260505093609 21 207 12.9 24.1 0.00 0.00 0.00 83 1003.6
20260505093541 21 179 9.7 24.1 0.00 0.00 0.00 83 1003.7
20260505093232 21 165 8.0 24.1 0.00 0.00 0.00 83 1003.7
20260505093132 21 175 11.3 24.1 0.00 0.00 0.00 83 1003.8
20260505093032 21 223 11.3 24.1 0.00 0.00 0.00 83 1003.8
20260505092933 21 185 12.9 29.0 0.00 0.00 0.00 83 1003.7
20260505092832 21 169 14.5 29.0 0.00 0.00 0.00 83 1003.7
20260505092731 21 197 16.1 29.0 0.00 0.00 0.00 83 1003.6
20260505092634 21 142 12.9 29.0 0.00 0.00 0.00 83 1003.7
20260505092532 21 217 11.3 30.6 0.00 0.00 0.00 83 1003.8
20260505092432 21 244 14.5 32.2 0.00 0.00 0.00 83 1003.7
20260505092331 21 200 14.5 32.2 0.00 0.00 0.00 83 1003.7
20260505092233 21 195 12.9 32.2 0.00 0.00 0.00 83 1003.8
20260505092131 21 190 16.1 32.2 0.00 0.00 0.00 83 1003.8
20260505092030 21 195 17.7 32.2 0.00 0.00 0.00 83 1004.0
20260505091927 21 207 14.5 32.2 0.00 0.00 0.00 83 1004.1
20260505091834 21 203 12.9 32.2 0.00 0.00 0.00 83 1004.1
20260505091827 21 190 12.9 32.2 0.00 0.00 0.00 83 1004.1
20260505091724 21 178 16.1 32.2 0.00 0.00 0.00 83 1004.1
20260505091624 21 216 19.3 32.2 0.00 0.00 0.00 83 1004.0
20260505091522 21 175 17.7 32.2 0.00 0.00 0.00 83 1004.0
20260505091423 21 171 16.1 27.4 0.00 0.00 0.00 83 1004.1
20260505091331 21 212 17.7 27.4 0.00 0.00 0.00 83 1004.0
20260505091324 21 164 17.7 27.4 0.00 0.00 0.00 83 1004.0
20260505091224 21 210 19.3 27.4 0.00 0.00 0.00 83 1004.0
20260505091123 21 214 20.9 27.4 0.00 0.00 0.00 83 1004.1
20260505091022 21 223 17.7 27.4 0.00 0.00 0.00 83 1004.1
20260505090923 21 226 16.1 27.4 0.00 0.00 0.00 83 1004.1
20260505090836 21 196 17.7 27.4 0.00 0.00 0.00 83 1004.1
20260505090824 21 207 16.1 27.4 0.00 0.00 0.00 83 1004.1
20260505090723 21 206 14.5 27.4 0.00 0.00 0.00 83 1004.1
20260505090622 21 165 17.7 27.4 0.00 0.00 0.00 83 1004.1
20260505090524 21 199 17.7 27.4 0.00 0.00 0.00 83 1004.0
20260505090423 21 209 16.1 27.4 0.00 0.00 0.00 83 1004.0
20260505090332 21 219 14.5 27.4 0.00 0.00 0.00 83 1004.0
20260505090323 21 166 14.5 27.4 0.00 0.00 0.00 83 1004.0
20260505090223 21 199 14.5 27.4 0.00 0.00 0.00 83 1004.0
20260505090122 21 179 14.5 27.4 0.00 0.00 0.00 83 1004.0
20260505090023 21 221 16.1 27.4 0.00 0.00 0.00 83 1004.1
20260505085923 21 196 16.1 27.4 0.00 0.00 0.00 83 1004.1
20260505085834 21 193 16.1 25.7 0.00 0.00 0.00 83 1003.8
20260505085823 21 149 16.1 25.7 0.00 0.00 0.00 83 1003.8
20260505085748 21 241 12.9 27.4 0.00 0.00 0.00 83 1004.1
20260505085734 21 192 14.5 25.7 0.00 0.00 0.00 83 1004.1
20260505085704 21 228 11.3 25.7 0.00 0.00 0.00 83 1004.1
20260505085634 21 200 12.9 27.4 0.00 0.00 0.00 83 1004.1
20260505085605 21 185 12.9 27.4 0.00 0.00 0.00 83 1004.0
20260505085323 21 207 11.3 27.4 0.00 0.00 0.00 83 1004.1
20260505085223 21 151 12.9 27.4 0.00 0.00 0.00 83 1004.0
20260505085123 21 206 11.3 27.4 0.00 0.00 0.00 83 1004.1
20260505085015 21 209 12.9 27.4 0.00 0.00 0.00 83 1004.0
20260505084910 21 188 14.5 27.4 0.00 0.00 0.00 83 1004.1
20260505084830 21 166 12.9 27.4 0.00 0.00 0.00 83 1004.1
20260505084809 21 185 12.9 27.4 0.00 0.00 0.00 83 1004.0
20260505084707 21 188 16.1 27.4 0.00 0.00 0.00 83 1004.0
20260505084607 21 178 16.1 27.4 0.00 0.00 0.00 83 1004.0
20260505084504 21 203 12.9 24.1 0.00 0.00 0.00 82 1004.0
20260505084403 21 197 14.5 24.1 0.00 0.00 0.00 82 1003.8
20260505084331 21 202 14.5 24.1 0.00 0.00 0.00 82 1003.8
20260505084247 21 189 12.9 25.7 0.00 0.00 0.00 82 1004.0
20260505084147 22 182 14.5 25.7 0.00 0.00 0.00 82 1004.0
20260505084046 22 182 14.5 25.7 0.00 0.00 0.00 82 1003.7
20260505083945 22 200 12.9 25.7 0.00 0.00 0.00 82 1003.8
20260505083843 22 178 12.9 27.4 0.00 0.00 0.00 82 1003.8
20260505083830 22 195 12.9 27.4 0.00 0.00 0.00 82 1003.8
20260505083740 22 195 12.9 27.4 0.00 0.00 0.00 82 1003.8
20260505083640 22 169 11.3 27.4 0.00 0.00 0.00 82 1003.8
20260505083539 22 186 11.3 27.4 0.00 0.00 0.00 82 1003.7
20260505083437 22 196 14.5 27.4 0.00 0.00 0.00 82 1003.8
20260505083331 22 220 16.1 27.4 0.00 0.00 0.00 82 1003.8
20260505083246 22 138 12.9 22.5 0.00 0.00 0.00 82 1004.0
20260505083237 22 193 14.5 27.4 0.00 0.00 0.00 82 1003.8
20260505083209 22 214 12.9 27.4 0.00 0.00 0.00 82 1003.8
20260505083140 22 226 14.5 27.4 0.00 0.00 0.00 82 1003.8
20260505083108 22 173 14.5 27.4 0.00 0.00 0.00 82 1004.0
20260505083038 22 138 12.9 22.5 0.00 0.00 0.00 82 1004.0
20260505082743 22 200 11.3 29.0 0.00 0.00 0.00 81 1004.1
20260505082732 22 244 12.9 29.0 0.00 0.00 0.00 81 1004.0
20260505082703 22 197 14.5 29.0 0.00 0.00 0.00 81 1004.0
20260505082633 22 197 12.9 29.0 0.00 0.00 0.00 81 1004.0
20260505082603 22 166 11.3 29.0 0.00 0.00 0.00 81 1003.8
20260505082532 22 200 11.3 29.0 0.00 0.00 0.00 81 1004.1
20260505082221 22 195 14.5 29.0 0.00 0.00 0.00 81 1004.0
20260505082118 22 190 14.5 29.0 0.00 0.00 0.00 81 1004.0
20260505082018 22 190 14.5 29.0 0.00 0.00 0.00 81 1004.1
20260505081915 22 192 17.7 29.0 0.00 0.00 0.00 81 1004.0
20260505081824 22 203 16.1 29.0 0.00 0.00 0.00 81 1004.0
20260505081815 22 197 16.1 29.0 0.00 0.00 0.00 81 1004.0
20260505081730 22 195 17.7 29.0 0.00 0.00 0.00 81 1004.0
20260505081719 22 195 14.5 29.0 0.00 0.00 0.00 81 1004.0
20260505081649 22 192 14.5 29.0 0.00 0.00 0.00 81 1004.0
20260505081618 22 197 14.5 29.0 0.00 0.00 0.00 81 1004.0
20260505081546 22 186 16.1 29.0 0.00 0.00 0.00 81 1004.0
20260505081306 22 193 17.7 29.0 0.00 0.00 0.00 81 1004.0
20260505081206 22 203 16.1 29.0 0.00 0.00 0.00 81 1004.0
20260505081103 22 197 14.5 27.4 0.00 0.00 0.00 81 1004.1
20260505081004 22 228 14.5 27.4 0.00 0.00 0.00 81 1004.0
20260505080904 22 185 11.3 27.4 0.00 0.00 0.00 81 1004.1
20260505080841 22 182 12.9 27.4 0.00 0.00 0.00 81 1004.1
20260505080831 22 195 12.9 29.0 0.00 0.00 0.00 81 1004.1
20260505080734 22 220 14.5 33.8 0.00 0.00 0.00 80 1004.2
20260505080717 22 233 14.5 33.8 0.00 0.00 0.00 80 1004.1
20260505080646 22 234 12.9 33.8 0.00 0.00 0.00 80 1004.1
20260505080616 22 144 14.5 33.8 0.00 0.00 0.00 80 1004.2
20260505080545 22 178 16.1 33.8 0.00 0.00 0.00 80 1004.2
20260505080300 22 189 14.5 33.8 0.00 0.00 0.00 80 1004.2
20260505080217 22 227 19.3 33.8 0.00 0.00 0.00 80 1004.2
20260505080206 22 192 14.5 33.8 0.00 0.00 0.00 80 1004.2
20260505080136 22 173 16.1 33.8 0.00 0.00 0.00 80 1004.2
20260505080107 22 155 19.3 33.8 0.00 0.00 0.00 80 1004.0
20260505080036 22 213 19.3 33.8 0.00 0.00 0.00 80 1004.0
20260505075743 22 157 19.3 33.8 0.00 0.00 0.00 80 1004.2
20260505075638 22 182 19.3 27.4 0.00 0.00 0.00 80 1004.2
20260505075537 22 165 14.5 27.4 0.00 0.00 0.00 80 1004.2
20260505075433 22 159 11.3 25.7 0.00 0.00 0.00 80 1004.2
20260505075330 22 171 14.5 25.7 0.00 0.00 0.00 80 1004.2
20260505075314 22 217 14.5 30.6 0.00 0.00 0.00 80 1004.2
20260505075231 22 248 16.1 30.6 0.00 0.00 0.00 80 1004.2
20260505075131 22 182 17.7 30.6 0.00 0.00 0.00 80 1004.2
20260505075032 22 151 17.7 30.6 0.00 0.00 0.00 80 1004.3
20260505074931 22 180 14.5 30.6 0.00 0.00 0.00 80 1004.2
20260505074831 22 209 11.3 30.6 0.00 0.00 0.00 80 1004.2
20260505074814 22 189 12.9 30.6 0.00 0.00 0.00 80 1004.3
20260505074732 22 202 11.3 30.6 0.00 0.00 0.00 80 1004.3
20260505074633 22 203 16.1 35.4 0.00 0.00 0.00 80 1004.3
20260505074532 22 221 16.1 35.4 0.00 0.00 0.00 80 1004.3
20260505074430 22 185 17.7 35.4 0.00 0.00 0.00 80 1004.3
20260505074332 22 186 14.5 35.4 0.00 0.00 0.00 80 1004.2
20260505074313 22 193 12.9 35.4 0.00 0.00 0.00 80 1004.3
20260505074232 22 183 12.9 35.4 0.00 0.00 0.00 80 1004.3
20260505074131 22 195 12.9 35.4 0.00 0.00 0.00 79 1004.3
20260505074030 22 179 14.5 35.4 0.00 0.00 0.00 79 1004.3
20260505073929 22 219 16.1 35.4 0.00 0.00 0.00 79 1004.3
20260505073823 22 137 20.9 35.4 0.00 0.00 0.00 79 1004.3
20260505073810 22 172 20.9 35.4 0.00 0.00 0.00 79 1004.4
20260505073723 22 168 20.9 35.4 0.00 0.00 0.00 79 1004.4
20260505073623 22 195 17.7 25.7 0.00 0.00 0.00 79 1004.5
20260505073522 22 178 17.7 29.0 0.00 0.00 0.00 79 1004.4
20260505073421 22 180 14.5 29.0 0.00 0.00 0.00 79 1004.4
20260505073321 22 176 14.5 29.0 0.00 0.00 0.00 79 1004.4
20260505073308 22 202 14.5 29.0 0.00 0.00 0.00 79 1004.5
20260505073221 22 185 12.9 30.6 0.00 0.00 0.00 79 1004.5
20260505073122 22 192 11.3 30.6 0.00 0.00 0.00 79 1004.4
20260505073023 22 202 12.9 30.6 0.00 0.00 0.00 79 1004.5
20260505072923 22 164 14.5 30.6 0.00 0.00 0.00 79 1004.5
20260505072822 22 171 17.7 30.6 0.00 0.00 0.00 79 1004.5
20260505072807 22 212 17.7 30.6 0.00 0.00 0.00 79 1004.6
20260505072722 22 223 20.9 30.6 0.00 0.00 0.00 79 1004.6
20260505072621 22 166 20.9 30.6 0.00 0.00 0.00 79 1004.6
20260505072521 22 206 17.7 30.6 0.00 0.00 0.00 79 1004.6
20260505072421 22 202 16.1 30.6 0.00 0.00 0.00 79 1004.7
20260505072323 22 213 17.7 30.6 0.00 0.00 0.00 78 1004.7
20260505072309 22 228 17.7 30.6 0.00 0.00 0.00 78 1004.7
20260505072221 22 180 17.7 29.0 0.00 0.00 0.00 78 1004.7
20260505072122 22 228 16.1 29.0 0.00 0.00 0.00 78 1004.7
20260505072020 22 161 16.1 25.7 0.00 0.00 0.00 78 1004.7
20260505071922 22 212 17.7 27.4 0.00 0.00 0.00 78 1004.7
20260505071821 22 188 16.1 27.4 0.00 0.00 0.00 78 1004.7
20260505071807 22 175 14.5 27.4 0.00 0.00 0.00 78 1004.6
20260505071724 22 210 16.1 27.4 0.00 0.00 0.00 78 1004.6
20260505071718 22 182 12.9 35.4 0.00 0.00 0.00 78 1004.8
20260505071649 22 228 16.1 27.4 0.00 0.00 0.00 78 1004.8
20260505071619 22 140 17.7 27.4 0.00 0.00 0.00 78 1004.8
20260505071549 22 178 14.5 35.4 0.00 0.00 0.00 78 1004.7
20260505071521 22 202 12.9 35.4 0.00 0.00 0.00 78 1004.8
20260505071230 22 206 14.5 35.4 0.00 0.00 0.00 77 1004.9
20260505071221 22 230 14.5 35.4 0.00 0.00 0.00 78 1004.7
20260505071149 22 204 14.5 35.4 0.00 0.00 0.00 78 1004.8
20260505071117 22 209 12.9 35.4 0.00 0.00 0.00 78 1004.8
20260505071048 22 193 11.3 35.4 0.00 0.00 0.00 77 1004.8
20260505071017 22 196 14.5 35.4 0.00 0.00 0.00 77 1004.9
20260505070706 22 203 17.7 35.4 0.00 0.00 0.00 78 1004.9
20260505070605 22 188 20.9 35.4 0.00 0.00 0.00 78 1004.8
20260505070507 22 219 20.9 35.4 0.00 0.00 0.00 78 1004.9
20260505070406 22 171 16.1 29.0 0.00 0.00 0.00 77 1004.8
20260505070306 22 203 11.3 29.0 0.00 0.00 0.00 77 1004.8
20260505070206 22 137 11.3 29.0 0.00 0.00 0.00 77 1004.9
20260505070131 22 162 12.9 27.4 0.00 0.00 0.00 77 1005.1
20260505070123 22 209 14.5 30.6 0.00 0.00 0.00 77 1005.2
20260505070107 22 162 14.5 29.0 0.00 0.00 0.00 77 1004.8
20260505070037 22 206 16.1 29.0 0.00 0.00 0.00 77 1004.9
20260505070007 22 164 19.3 29.0 0.00 0.00 0.00 77 1004.8
20260505065944 22 224 19.3 29.0 0.00 0.00 0.00 77 1004.8
20260505065929 22 212 19.3 29.0 0.00 0.00 0.00 77 1004.8
20260505065651 22 188 16.1 27.4 0.00 0.00 0.00 77 1004.9
20260505065623 22 165 12.9 27.4 0.00 0.00 0.00 77 1005.0
20260505065553 22 220 11.3 27.4 0.00 0.00 0.00 77 1005.0
20260505065528 22 210 14.5 27.4 0.00 0.00 0.00 77 1005.0
20260505065509 22 175 16.1 27.4 0.00 0.00 0.00 77 1005.0
20260505065253 22 206 12.9 20.9 0.00 0.00 0.00 76 1005.3
20260505065241 22 200 16.1 27.4 0.00 0.00 0.00 77 1005.0
20260505065210 22 186 14.5 25.7 0.00 0.00 0.00 77 1005.1
20260505065140 22 193 14.5 25.7 0.00 0.00 0.00 77 1005.0
20260505065111 22 165 12.9 25.7 0.00 0.00 0.00 77 1005.1
20260505065041 22 142 16.1 25.7 0.00 0.00 0.00 77 1005.0
20260505065022 22 199 14.5 25.7 0.00 0.00 0.00 77 1005.1
20260505065006 22 207 14.5 25.7 0.00 0.00 0.00 77 1005.1
20260505064937 22 195 9.7 25.7 0.00 0.00 0.00 77 1005.1
20260505064908 22 175 9.7 27.4 0.00 0.00 0.00 77 1005.0
20260505064841 22 173 14.5 27.4 0.00 0.00 0.00 77 1005.1
20260505064812 22 189 16.1 27.4 0.00 0.00 0.00 77 1005.1
20260505064755 22 217 16.1 27.4 0.00 0.00 0.00 77 1005.1
20260505064739 22 176 16.1 27.4 0.00 0.00 0.00 77 1005.1
20260505064709 22 186 12.9 27.4 0.00 0.00 0.00 77 1005.2
20260505064638 22 192 12.9 27.4 0.00 0.00 0.00 77 1005.1
20260505064608 22 204 12.9 27.4 0.00 0.00 0.00 77 1005.2
20260505064539 22 166 9.7 27.4 0.00 0.00 0.00 77 1005.2
20260505064258 22 206 12.9 27.4 0.00 0.00 0.00 77 1005.1
20260505064229 22 169 11.3 27.4 0.00 0.00 0.00 77 1005.2
20260505064159 22 234 9.7 25.7 0.00 0.00 0.00 77 1005.2
20260505064130 22 202 9.7 30.6 0.00 0.00 0.00 77 1005.2
20260505064100 22 204 11.3 30.6 0.00 0.00 0.00 76 1005.2
20260505064042 22 178 12.9 30.6 0.00 0.00 0.00 77 1005.3
20260505064026 22 200 12.9 30.6 0.00 0.00 0.00 77 1005.3
20260505063956 22 193 12.9 30.6 0.00 0.00 0.00 77 1005.2
20260505063927 22 182 12.9 30.6 0.00 0.00 0.00 77 1005.2
20260505063857 22 185 11.3 30.6 0.00 0.00 0.00 77 1005.2
20260505063827 22 180 12.9 30.6 0.00 0.00 0.00 77 1005.3
20260505063548 22 190 16.1 30.6 0.00 0.00 0.00 77 1005.2
20260505063517 22 212 17.7 30.6 0.00 0.00 0.00 77 1005.2
20260505063448 22 173 16.1 30.6 0.00 0.00 0.00 77 1005.3
20260505063418 22 220 12.9 20.9 0.00 0.00 0.00 77 1005.2
20260505063350 22 140 9.7 20.9 0.00 0.00 0.00 77 1005.3
20260505063335 22 183 11.3 20.9 0.00 0.00 0.00 77 1005.2
20260505063318 22 197 11.3 20.9 0.00 0.00 0.00 77 1005.2
20260505063247 22 182 14.5 22.5 0.00 0.00 0.00 77 1005.2
20260505063222 22 190 12.9 22.5 0.00 0.00 0.00 77 1005.2
20260505063153 22 185 11.3 22.5 0.00 0.00 0.00 77 1005.3
20260505063123 22 157 11.3 25.7 0.00 0.00 0.00 77 1005.3
20260505063041 22 188 11.3 25.7 0.00 0.00 0.00 77 1005.3
20260505063016 22 195 12.9 25.7 0.00 0.00 0.00 77 1005.2
20260505062917 22 159 11.3 25.7 0.00 0.00 0.00 77 1005.3
20260505062850 22 168 9.7 25.7 0.00 0.00 0.00 76 1005.3
20260505062822 22 144 9.7 25.7 0.00 0.00 0.00 76 1005.4
20260505062752 22 188 11.3 25.7 0.00 0.00 0.00 76 1005.3
20260505062742 22 178 12.9 25.7 0.00 0.00 0.00 76 1005.3
20260505062720 22 159 11.3 25.7 0.00 0.00 0.00 76 1005.3
20260505062650 22 214 11.3 25.7 0.00 0.00 0.00 76 1005.3
20260505062620 22 176 12.9 25.7 0.00 0.00 0.00 76 1005.3
20260505062549 22 209 14.5 20.9 0.00 0.00 0.00 76 1005.2
20260505062518 22 183 12.9 20.9 0.00 0.00 0.00 76 1005.3
20260505060753 22 206 12.9 20.9 0.00 0.00 0.00 76 1005.3
20260505060652 22 212 8.0 19.3 0.00 0.00 0.00 76 1005.2
20260505060550 22 197 8.0 20.9 0.00 0.00 0.00 76 1005.2
20260505060446 22 159 9.7 20.9 0.00 0.00 0.00 76 1005.3
20260505060345 22 213 12.9 20.9 0.00 0.00 0.00 76 1005.3
20260505060257 22 175 11.3 33.8 0.00 0.00 0.00 76 1005.3
20260505060245 22 186 11.3 33.8 0.00 0.00 0.00 76 1005.3
20260505060145 22 244 9.7 33.8 0.00 0.00 0.00 76 1005.2
20260505060041 22 166 9.7 33.8 0.00 0.00 0.00 76 1005.3
20260505055938 22 137 8.0 33.8 0.00 0.00 0.00 76 1005.2
20260505055837 22 154 9.7 33.8 0.00 0.00 0.00 76 1005.2
20260505055755 22 118 12.9 33.8 0.00 0.00 0.00 76 1005.2
20260505055733 22 203 12.9 33.8 0.00 0.00 0.00 76 1005.2
20260505055634 22 185 14.5 33.8 0.00 0.00 0.00 76 1005.2
20260505055535 22 213 14.5 33.8 0.00 0.00 0.00 76 1005.2
20260505055435 22 190 16.1 33.8 0.00 0.00 0.00 75 1005.2
20260505055334 22 209 12.9 25.7 0.00 0.00 0.00 75 1005.1
20260505055255 22 168 9.7 25.7 0.00 0.00 0.00 75 1005.1
20260505055236 22 202 9.7 25.7 0.00 0.00 0.00 75 1005.1
20260505055159 22 164 9.7 27.4 0.00 0.00 0.00 75 1005.2
20260505055145 22 172 9.7 25.7 0.00 0.00 0.00 75 1005.0
20260505055118 22 200 11.3 27.4 0.00 0.00 0.00 75 1005.0
20260505055048 22 202 12.9 27.4 0.00 0.00 0.00 75 1005.2
20260505055021 22 145 11.3 27.4 0.00 0.00 0.00 75 1005.1
20260505054735 22 147 8.0 27.4 0.00 0.00 0.00 75 1005.2
20260505054635 22 186 8.0 27.4 0.00 0.00 0.00 75 1005.3
20260505054534 22 165 8.0 27.4 0.00 0.00 0.00 75 1005.3
20260505054435 22 144 11.3 30.6 0.00 0.00 0.00 75 1005.3
20260505054331 22 202 12.9 30.6 0.00 0.00 0.00 75 1005.3
20260505054252 22 231 12.9 30.6 0.00 0.00 0.00 75 1005.3
20260505054232 22 180 12.9 30.6 0.00 0.00 0.00 75 1005.3
20260505054129 22 193 11.3 30.6 0.00 0.00 0.00 75 1005.3
20260505054029 22 190 11.3 30.6 0.00 0.00 0.00 75 1005.2
20260505053928 22 200 14.5 30.6 0.00 0.00 0.00 75 1005.4
20260505053825 22 224 14.5 30.6 0.00 0.00 0.00 75 1005.4
20260505053753 22 180 14.5 30.6 0.00 0.00 0.00 75 1005.3
20260505053722 22 213 12.9 30.6 0.00 0.00 0.00 75 1005.3
20260505053624 22 172 16.1 30.6 0.00 0.00 0.00 75 1005.4
20260505053520 22 206 14.5 30.6 0.00 0.00 0.00 75 1005.4
20260505053420 22 162 12.9 25.7 0.00 0.00 0.00 75 1005.4
20260505053320 22 202 14.5 25.7 0.00 0.00 0.00 75 1005.4
20260505053253 22 199 12.9 25.7 0.00 0.00 0.00 75 1005.4
20260505053220 22 176 11.3 25.7 0.00 0.00 0.00 75 1005.4
20260505053121 22 138 9.7 24.1 0.00 0.00 0.00 74 1005.5
20260505053019 23 169 11.3 24.1 0.00 0.00 0.00 74 1005.5
20260505052917 23 207 11.3 25.7 0.00 0.00 0.00 74 1005.5
20260505052818 23 173 9.7 25.7 0.00 0.00 0.00 74 1005.4
20260505052749 23 178 11.3 25.7 0.00 0.00 0.00 74 1005.4
20260505052719 23 171 12.9 25.7 0.00 0.00 0.00 74 1005.4
20260505052617 23 180 16.1 25.7 0.00 0.00 0.00 74 1005.4
20260505052517 23 145 11.3 25.7 0.00 0.00 0.00 74 1005.4
20260505052418 23 188 11.3 25.7 0.00 0.00 0.00 74 1005.5
20260505052318 23 213 11.3 25.7 0.00 0.00 0.00 74 1005.5
20260505052251 23 154 11.3 25.7 0.00 0.00 0.00 74 1005.6
20260505052218 23 214 11.3 25.7 0.00 0.00 0.00 74 1005.6
20260505052118 23 166 14.5 25.7 0.00 0.00 0.00 74 1005.5
20260505052018 23 178 14.5 25.7 0.00 0.00 0.00 74 1005.6
20260505051918 23 176 11.3 25.7 0.00 0.00 0.00 74 1005.6
20260505051814 23 178 11.3 25.7 0.00 0.00 0.00 74 1005.6
20260505051751 23 168 12.9 25.7 0.00 0.00 0.00 74 1005.6
20260505051714 23 172 12.9 25.7 0.00 0.00 0.00 74 1005.6
20260505051612 23 172 14.5 25.7 0.00 0.00 0.00 74 1005.6
20260505051510 23 212 14.5 27.4 0.00 0.00 0.00 74 1005.6
20260505051409 23 158 14.5 27.4 0.00 0.00 0.00 74 1005.6
20260505051308 23 173 14.5 27.4 0.00 0.00 0.00 74 1005.7
20260505051252 23 195 12.9 27.4 0.00 0.00 0.00 74 1005.7
20260505051208 23 178 12.9 27.4 0.00 0.00 0.00 74 1005.7
20260505051105 23 159 14.5 27.4 0.00 0.00 0.00 74 1005.7
20260505051006 23 157 14.5 27.4 0.00 0.00 0.00 74 1005.7
20260505050905 23 179 12.9 27.4 0.00 0.00 0.00 74 1005.7
20260505050806 23 204 11.3 27.4 0.00 0.00 0.00 74 1005.7
20260505050749 23 178 9.7 27.4 0.00 0.00 0.00 74 1005.7
20260505050703 23 180 11.3 27.4 0.00 0.00 0.00 74 1005.8
20260505050603 23 197 12.9 27.4 0.00 0.00 0.00 74 1005.7
20260505050505 23 196 11.3 27.4 0.00 0.00 0.00 74 1005.7
20260505050405 23 179 12.9 27.4 0.00 0.00 0.00 74 1005.8
20260505050302 23 223 11.3 27.4 0.00 0.00 0.00 73 1005.7
20260505050248 23 209 11.3 27.4 0.00 0.00 0.00 73 1005.7
20260505050156 23 216 8.0 27.4 0.00 0.00 0.00 73 1005.7
20260505041739 23 176 14.5 27.4 0.00 0.00 0.00 72 1005.7
20260505041703 23 144 16.1 27.4 0.00 0.00 0.00 72 1005.7
20260505041603 23 145 16.1 27.4 0.00 0.00 0.00 72 1005.8
20260505041503 23 196 12.9 30.6 0.00 0.00 0.00 72 1005.9
20260505041359 23 176 11.3 30.6 0.00 0.00 0.00 72 1005.9
20260505041259 23 183 12.9 30.6 0.00 0.00 0.00 72 1005.8
20260505041237 23 165 12.9 30.6 0.00 0.00 0.00 72 1005.8
20260505041157 23 196 14.5 30.6 0.00 0.00 0.00 71 1005.8
20260505041106 23 183 12.9 30.6 0.00 0.00 0.00 71 1005.9
20260505041059 23 138 16.1 30.6 0.00 0.00 0.00 72 1005.8
20260505041026 23 186 14.5 30.6 0.00 0.00 0.00 71 1005.7
20260505040957 23 168 12.9 30.6 0.00 0.00 0.00 71 1005.8
20260505040927 23 159 14.5 30.6 0.00 0.00 0.00 71 1005.8
20260505040917 23 154 16.1 30.6 0.00 0.00 0.00 71 1005.8
20260505040852 23 161 16.1 30.6 0.00 0.00 0.00 71 1005.8
20260505040614 23 213 14.5 25.7 0.00 0.00 0.00 71 1005.8
20260505040545 23 168 16.1 25.7 0.00 0.00 0.00 71 1005.9
20260505040516 23 147 14.5 29.0 0.00 0.00 0.00 71 1005.8
20260505040448 23 195 12.9 30.6 0.00 0.00 0.00 71 1005.9
20260505040155 23 189 9.7 30.6 0.00 0.00 0.00 71 1005.8
20260505040145 23 149 11.3 30.6 0.00 0.00 0.00 71 1005.9
20260505040112 23 192 11.3 30.6 0.00 0.00 0.00 71 1005.9
20260505040042 23 171 12.9 30.6 0.00 0.00 0.00 71 1005.9
20260505040012 23 175 11.3 30.6 0.00 0.00 0.00 71 1005.9
20260505035941 23 189 9.7 30.6 0.00 0.00 0.00 71 1005.8
20260505035631 23 188 12.9 30.6 0.00 0.00 0.00 71 1005.9
20260505035531 23 144 16.1 30.6 0.00 0.00 0.00 71 1005.8
20260505035432 23 176 16.1 30.6 0.00 0.00 0.00 71 1005.8
20260505035333 23 182 14.5 30.6 0.00 0.00 0.00 71 1005.8
20260505035232 23 173 12.9 29.0 0.00 0.00 0.00 71 1005.8
20260505035131 23 159 12.9 29.0 0.00 0.00 0.00 71 1005.8
20260505035032 23 128 14.5 29.0 0.00 0.00 0.00 71 1005.7
20260505034934 23 172 16.1 29.0 0.00 0.00 0.00 71 1005.7
20260505034832 23 166 12.9 29.0 0.00 0.00 0.00 71 1005.8
20260505034731 23 152 14.5 29.0 0.00 0.00 0.00 71 1005.8
20260505034631 23 175 14.5 29.0 0.00 0.00 0.00 71 1005.8
20260505034531 23 154 11.3 24.1 0.00 0.00 0.00 71 1005.7
20260505034433 23 224 11.3 22.5 0.00 0.00 0.00 71 1005.7
20260505034332 23 192 12.9 22.5 0.00 0.00 0.00 71 1005.8
20260505034231 23 135 11.3 22.5 0.00 0.00 0.00 71 1005.8
20260505034132 23 199 12.9 27.4 0.00 0.00 0.00 71 1005.7
20260505034032 23 149 11.3 27.4 0.00 0.00 0.00 71 1005.7
20260505033931 23 173 9.7 27.4 0.00 0.00 0.00 71 1005.7
20260505033830 23 171 11.3 27.4 0.00 0.00 0.00 71 1005.6
20260505033730 23 200 14.5 27.4 0.00 0.00 0.00 71 1005.7
20260505033630 23 148 12.9 27.4 0.00 0.00 0.00 71 1005.7
20260505033529 23 116 11.3 27.4 0.00 0.00 0.00 71 1005.8
20260505033428 23 176 14.5 27.4 0.00 0.00 0.00 71 1005.9
20260505033326 23 195 14.5 27.4 0.00 0.00 0.00 71 1005.9
20260505033232 23 180 12.9 27.4 0.00 0.00 0.00 71 1005.9
20260505033225 23 162 11.3 25.7 0.00 0.00 0.00 71 1005.9
20260505033124 23 189 11.3 25.7 0.00 0.00 0.00 71 1005.9
20260505033022 23 149 9.7 25.7 0.00 0.00 0.00 71 1005.8
20260505032958 23 157 14.5 25.7 0.00 0.00 0.00 70 1005.9
20260505032953 23 173 12.9 25.7 0.00 0.00 0.00 70 1006.0
20260505032936 23 149 9.7 25.7 0.00 0.00 0.00 71 1005.9
20260505032907 23 226 12.9 25.7 0.00 0.00 0.00 70 1005.9
20260505032844 23 188 12.9 25.7 0.00 0.00 0.00 70 1006.0
20260505032835 23 190 12.9 25.7 0.00 0.00 0.00 70 1006.0
20260505032805 23 180 14.5 25.7 0.00 0.00 0.00 70 1005.9
20260505032739 23 182 14.5 25.7 0.00 0.00 0.00 70 1006.0
20260505032709 23 183 14.5 25.7 0.00 0.00 0.00 70 1005.9
20260505032641 23 164 14.5 25.7 0.00 0.00 0.00 70 1005.9
20260505032404 23 152 12.9 25.7 0.00 0.00 0.00 70 1006.0
20260505032125 23 166 14.5 25.7 0.00 0.00 0.00 70 1006.0
20260505032056 23 155 12.9 25.7 0.00 0.00 0.00 70 1005.8
20260505032026 23 161 11.3 25.7 0.00 0.00 0.00 70 1005.9
20260505031957 23 178 12.9 25.7 0.00 0.00 0.00 70 1005.9
20260505031712 23 155 14.5 25.7 0.00 0.00 0.00 70 1005.9
20260505031614 23 196 14.5 29.0 0.00 0.00 0.00 70 1005.9
20260505031512 23 185 12.9 29.0 0.00 0.00 0.00 70 1005.9
20260505031410 23 121 12.9 29.0 0.00 0.00 0.00 70 1005.9
20260505031308 23 199 12.9 29.0 0.00 0.00 0.00 70 1005.9
20260505031231 23 148 12.9 29.0 0.00 0.00 0.00 70 1005.9
20260505031207 23 162 12.9 29.0 0.00 0.00 0.00 70 1005.8
20260505031144 23 162 12.9 29.0 0.00 0.00 0.00 70 1005.8
20260505031126 23 178 14.5 29.0 0.00 0.00 0.00 70 1005.8
20260505031056 23 179 16.1 29.0 0.00 0.00 0.00 70 1005.9
20260505031024 23 182 14.5 29.0 0.00 0.00 0.00 70 1005.8
20260505030956 23 176 14.5 29.0 0.00 0.00 0.00 70 1005.8
20260505030701 23 171 11.3 29.0 0.00 0.00 0.00 70 1005.8
20260505030600 23 210 8.0 24.1 0.00 0.00 0.00 70 1005.8
20260505030500 23 166 9.7 29.0 0.00 0.00 0.00 70 1005.8
20260505030357 23 185 11.3 29.0 0.00 0.00 0.00 70 1005.9
20260505030256 23 217 11.3 29.0 0.00 0.00 0.00 70 1005.8
20260505030231 23 178 11.3 29.0 0.00 0.00 0.00 70 1005.8
20260505030156 23 141 12.9 29.0 0.00 0.00 0.00 70 1005.8
20260505030141 23 185 16.1 29.0 0.00 0.00 0.00 70 1005.9
20260505030119 23 189 16.1 29.0 0.00 0.00 0.00 70 1005.8
20260505030047 23 196 16.1 29.0 0.00 0.00 0.00 70 1005.8
20260505030019 23 148 12.9 29.0 0.00 0.00 0.00 70 1005.8
20260505025949 23 178 14.5 29.0 0.00 0.00 0.00 70 1005.9
20260505025646 23 169 17.7 29.0 0.00 0.00 0.00 70 1005.8
20260505025544 23 195 17.7 29.0 0.00 0.00 0.00 70 1006.0
20260505025442 23 183 11.3 29.0 0.00 0.00 0.00 70 1005.9
20260505025340 23 113 9.7 29.0 0.00 0.00 0.00 70 1005.9
20260505025240 23 166 12.9 29.0 0.00 0.00 0.00 70 1005.9
20260505025231 23 179 12.9 29.0 0.00 0.00 0.00 70 1005.9
20260505025136 23 204 14.5 29.0 0.00 0.00 0.00 70 1005.9
20260505025034 23 152 14.5 29.0 0.00 0.00 0.00 70 1005.9
20260505024934 23 185 14.5 29.0 0.00 0.00 0.00 70 1005.9
20260505024835 23 178 12.9 29.0 0.00 0.00 0.00 70 1005.9
20260505024734 23 157 12.9 25.7 0.00 0.00 0.00 70 1005.9
20260505024634 23 186 11.3 25.7 0.00 0.00 0.00 70 1005.9
20260505024533 23 173 12.9 24.1 0.00 0.00 0.00 70 1006.0
20260505024433 23 189 14.5 30.6 0.00 0.00 0.00 70 1005.9
20260505024332 23 164 16.1 30.6 0.00 0.00 0.00 70 1005.9
20260505024233 23 188 14.5 30.6 0.00 0.00 0.00 70 1006.0
20260505024134 23 166 12.9 30.6 0.00 0.00 0.00 70 1005.9
20260505024032 23 192 11.3 30.6 0.00 0.00 0.00 70 1005.9
20260505023934 23 154 12.9 30.6 0.00 0.00 0.00 70 1006.0
20260505023834 23 164 14.5 30.6 0.00 0.00 0.00 70 1005.8
20260505023734 23 158 12.9 30.6 0.00 0.00 0.00 69 1005.9
20260505023728 23 127 12.9 30.6 0.00 0.00 0.00 69 1005.9
20260505023625 23 121 17.7 30.6 0.00 0.00 0.00 70 1006.0
20260505023524 23 127 17.7 30.6 0.00 0.00 0.00 70 1006.0
20260505023421 23 178 14.5 29.0 0.00 0.00 0.00 70 1005.9
20260505023319 23 192 11.3 29.0 0.00 0.00 0.00 70 1006.0
20260505023232 23 175 12.9 25.7 0.00 0.00 0.00 70 1006.0
20260505023216 23 151 14.5 25.7 0.00 0.00 0.00 70 1006.0
20260505023116 23 166 14.5 25.7 0.00 0.00 0.00 70 1006.0
20260505023010 23 199 11.3 25.7 0.00 0.00 0.00 70 1006.0
20260505022908 23 182 11.3 25.7 0.00 0.00 0.00 69 1006.0
20260505022806 23 169 12.9 25.7 0.00 0.00 0.00 69 1006.0
20260505022727 23 192 12.9 25.7 0.00 0.00 0.00 69 1006.0
20260505022707 23 175 12.9 25.7 0.00 0.00 0.00 69 1006.0
20260505022606 23 165 12.9 22.5 0.00 0.00 0.00 69 1006.0
20260505022504 23 159 12.9 22.5 0.00 0.00 0.00 69 1005.9
20260505022402 23 141 14.5 22.5 0.00 0.00 0.00 69 1006.0
20260505022301 23 161 12.9 22.5 0.00 0.00 0.00 69 1006.0
20260505022227 23 183 11.3 22.5 0.00 0.00 0.00 69 1006.0
20260505022159 23 149 11.3 22.5 0.00 0.00 0.00 69 1005.9
20260505022053 23 183 11.3 22.5 0.00 0.00 0.00 69 1005.9
20260505021953 23 200 11.3 29.0 0.00 0.00 0.00 69 1006.0
20260505021851 23 128 8.0 29.0 0.00 0.00 0.00 69 1006.0
20260505021749 23 155 9.7 29.0 0.00 0.00 0.00 69 1005.9
20260505021726 23 164 11.3 29.0 0.00 0.00 0.00 69 1005.9
20260505021650 23 200 12.9 29.0 0.00 0.00 0.00 69 1005.9
20260505021549 23 151 11.3 29.0 0.00 0.00 0.00 69 1005.9
20260505021446 23 180 9.7 29.0 0.00 0.00 0.00 69 1005.9
20260505021334 23 219 9.7 29.0 0.00 0.00 0.00 69 1005.9
20260505021236 24 155 9.7 29.0 0.00 0.00 0.00 69 1005.9
20260505021225 24 175 11.3 29.0 0.00 0.00 0.00 69 1005.9
20260505021134 24 148 14.5 29.0 0.00 0.00 0.00 68 1005.9
20260505021033 24 180 12.9 29.0 0.00 0.00 0.00 68 1005.8
20260505020932 24 178 9.7 19.3 0.00 0.00 0.00 68 1006.0
20260505020829 24 182 9.7 19.3 0.00 0.00 0.00 68 1005.9
20260505020728 24 204 11.3 19.3 0.00 0.00 0.00 68 1005.9
20260505020625 24 178 9.7 19.3 0.00 0.00 0.00 68 1006.0
20260505020523 24 171 8.0 19.3 0.00 0.00 0.00 68 1005.9
20260505020422 24 178 9.7 19.3 0.00 0.00 0.00 68 1005.9
20260505020322 24 171 9.7 24.1 0.00 0.00 0.00 67 1006.0
20260505020216 24 182 8.0 27.4 0.00 0.00 0.00 67 1005.9
20260505020119 24 202 6.4 27.4 0.00 0.00 0.00 67 1005.8
20260505020017 24 175 8.0 27.4 0.00 0.00 0.00 67 1005.8
20260505015916 24 188 11.3 27.4 0.00 0.00 0.00 67 1005.9
20260505015815 24 226 8.0 27.4 0.00 0.00 0.00 67 1005.9
20260505015716 24 157 8.0 27.4 0.00 0.00 0.00 67 1006.0
20260505015615 24 152 9.7 27.4 0.00 0.00 0.00 67 1006.0
20260505015512 24 190 12.9 27.4 0.00 0.00 0.00 67 1006.0
20260505015412 24 192 16.1 27.4 0.00 0.00 0.00 67 1005.9
20260505015310 24 171 16.1 27.4 0.00 0.00 0.00 67 1005.9
20260505015216 24 165 14.5 25.7 0.00 0.00 0.00 67 1005.9
20260505015209 24 158 12.9 25.7 0.00 0.00 0.00 67 1005.9
20260505015106 24 216 12.9 25.7 0.00 0.00 0.00 67 1005.9
20260505015005 24 159 11.3 25.7 0.00 0.00 0.00 67 1005.9
20260505014906 24 180 12.9 25.7 0.00 0.00 0.00 67 1005.9
20260505014805 24 144 16.1 25.7 0.00 0.00 0.00 67 1005.8
20260505014716 24 197 14.5 25.7 0.00 0.00 0.00 67 1005.8
20260505014704 24 220 14.5 25.7 0.00 0.00 0.00 67 1005.9
20260505014627 24 206 12.9 27.4 0.00 0.00 0.00 67 1005.9
20260505014612 24 169 12.9 25.7 0.00 0.00 0.00 67 1005.9
20260505014544 24 212 12.9 25.7 0.00 0.00 0.00 67 1005.9
20260505014515 24 148 11.3 27.4 0.00 0.00 0.00 67 1005.9
20260505014443 24 231 12.9 27.4 0.00 0.00 0.00 67 1005.9
20260505014154 24 207 12.9 27.4 0.00 0.00 0.00 67 1006.0
20260505014050 24 151 12.9 27.4 0.00 0.00 0.00 67 1005.8
20260505013950 24 189 11.3 27.4 0.00 0.00 0.00 67 1005.8
20260505013850 24 204 12.9 27.4 0.00 0.00 0.00 67 1005.8
20260505013746 24 171 11.3 27.4 0.00 0.00 0.00 67 1005.8
20260505013711 24 152 11.3 27.4 0.00 0.00 0.00 67 1005.9
20260505013647 24 165 11.3 27.4 0.00 0.00 0.00 67 1005.9
20260505013536 24 158 14.5 27.4 0.00 0.00 0.00 67 1005.8
20260505013434 24 169 14.5 27.4 0.00 0.00 0.00 67 1005.9
20260505013333 24 165 11.3 20.9 0.00 0.00 0.00 67 1005.9
20260505013232 24 172 9.7 20.9 0.00 0.00 0.00 67 1005.9
20260505013210 24 176 9.7 20.9 0.00 0.00 0.00 67 1006.0
20260505013136 24 189 9.7 20.9 0.00 0.00 0.00 67 1006.0
20260505013033 24 196 9.7 20.9 0.00 0.00 0.00 67 1005.9
20260505012933 24 169 11.3 20.9 0.00 0.00 0.00 67 1005.9
20260505012835 24 165 11.3 20.9 0.00 0.00 0.00 67 1006.0
20260505012734 24 180 9.7 24.1 0.00 0.00 0.00 66 1005.9
20260505012710 24 173 11.3 24.1 0.00 0.00 0.00 66 1005.8
20260505012635 24 176 12.9 24.1 0.00 0.00 0.00 66 1005.8
20260505012534 24 183 11.3 24.1 0.00 0.00 0.00 66 1005.8
20260505012433 24 183 11.3 24.1 0.00 0.00 0.00 66 1005.9
20260505012333 24 183 11.3 24.1 0.00 0.00 0.00 66 1005.8
20260505012233 24 183 11.3 29.0 0.00 0.00 0.00 66 1005.9
20260505012206 24 183 11.3 30.6 0.00 0.00 0.00 66 1005.9
20260505012134 24 183 11.3 30.6 0.00 0.00 0.00 66 1005.9
20260505012032 24 183 11.3 30.6 0.00 0.00 0.00 66 1005.8
20260505011910 24 189 11.3 30.6 0.00 0.00 0.00 66 1005.8
20260505011809 24 147 9.7 30.6 0.00 0.00 0.00 66 1005.9
20260505011705 24 159 11.3 30.6 0.00 0.00 0.00 66 1005.9
20260505011606 24 188 14.5 30.6 0.00 0.00 0.00 66 1005.9
20260505011506 24 209 14.5 30.6 0.00 0.00 0.00 66 1005.8
20260505011405 24 271 16.1 30.6 0.00 0.00 0.00 66 1005.9
20260505011307 24 199 14.5 30.6 0.00 0.00 0.00 66 1005.9
20260505011206 24 221 12.9 25.7 0.00 0.00 0.00 66 1005.9
20260505011105 24 175 12.9 25.7 0.00 0.00 0.00 66 1005.9
20260505011005 24 254 11.3 25.7 0.00 0.00 0.00 66 1005.9
20260505010904 24 220 11.3 25.7 0.00 0.00 0.00 66 1005.9
20260505010807 24 193 11.3 25.7 0.00 0.00 0.00 66 1005.9
20260505010709 24 188 9.7 25.7 0.00 0.00 0.00 66 1005.9
20260505010705 24 199 9.7 25.7 0.00 0.00 0.00 66 1005.9
20260505010605 25 158 11.3 25.7 0.00 0.00 0.00 65 1005.9
20260505010506 25 172 12.9 25.7 0.00 0.00 0.00 65 1005.8
20260505010405 25 197 12.9 29.0 0.00 0.00 0.00 65 1005.9
20260505010304 25 192 11.3 29.0 0.00 0.00 0.00 65 1005.8
20260505010205 25 190 9.7 29.0 0.00 0.00 0.00 65 1005.7
20260505010154 25 147 9.7 29.0 0.00 0.00 0.00 65 1005.7
20260505010055 25 137 16.1 29.0 0.00 0.00 0.00 65 1005.8
20260505005952 25 178 16.1 29.0 0.00 0.00 0.00 65 1005.8
20260505005850 25 188 12.9 29.0 0.00 0.00 0.00 65 1005.7
20260505005748 25 210 9.7 29.0 0.00 0.00 0.00 65 1005.8
20260505005704 25 200 9.7 29.0 0.00 0.00 0.00 65 1005.7
20260505005647 25 133 11.3 29.0 0.00 0.00 0.00 65 1005.7
20260505005545 25 162 17.7 29.0 0.00 0.00 0.00 65 1005.8